                ,  0.301,  0.397,  0.494,  0.590,  0.687,  0.784,  0.880,  0.977,  1.073,  1.170,  1.267,  1.363,  1.460,  1.556,  1.653,  1.749,  1.846,  1.943,  2.039,  2.136,  2.232,  2.329,  2.426,  2.522,  2.619,  2.715,  2.812,  2.909,  3.005,  3.102,  3.198,  3.295,  3.392,  3.488,  3.585,  3.681,  3.778,  3.875,  3.971,  4.068,  4.164,  4.261,  4.357,  4.454,  4.551,  4.647,  4.744,  4.840,  4.937,  5.034,  5.130,  5.227,  5.323,  5.420,  5.517,  5.613,  5.710,  5.806,  5.903,  6.000,  6.096,  6.193,  6.289,  6.386,  6.483,  6.579,  6.676,  6.772,  6.869,  6.965,  7.062,  7.159,  7.255,  7.352,  7.448,  7.545,  7.642,  7.738,  7.835,  7.931
2012/03/23 00:00,  999.0,   -0.1,    0.4,    0.2,   -0.1,    0.6,    0.9,    0.1,    0.7,    1.9,    2.0,    1.8,    2.0,    1.8,    0.7,    2.0,    1.2,    3.5,    3.2,  999.0,    3.1,  999.0,  999.0,  999.0,  999.0,   -2.1,   -0.7,   -0.8,   -0.3,    0.9,    0.0,    0.4,   -0.2,    0.4,  999.0,  999.0,  999.0,   -0.2,  999.0,    0.2,   -0.4,   -0.1,    0.3,  999.0,  999.0,    0.2,    0.1,   -0.1,  999.0,  999.0,   -0.0,   -0.2,   -0.0,    0.2,    0.3,    0.2,   -0.2,    0.1,   -0.4,   -0.4,   -0.5,    0.0,   -0.0,  999.0,  999.0,    0.2,   -0.3,   -0.3,  999.0,  999.0,  999.0,  999.0,  999.0,  999.0,  999.0,  999.0,  999.0,  999.0,  999.0,  999.0
2012/03/23 00:10,  999.0,   -0.3,    0.9,    0.5,    0.8,    0.4,    2.1,    2.2,    2.2,    3.8,    3.5,    3.0,    3.7,    3.9,    3.5,    4.4,    4.4,    4.2,  999.0,  999.0,  999.0,  999.0,  999.0,  999.0,   -0.2,    0.4,    0.0,   -0.1,    0.2,  999.0,    0.4,    0.5,  999.0,   -0.6,  999.0,  999.0,  999.0,  999.0,  999.0,  999.0,   -0.5,   -0.2,    0.2,  999.0,  999.0,  999.0,  999.0,  999.0,  999.0,    0.3,  999.0,  999.0,    0.1,  999.0,  999.0,  999.0,    0.0,   -0.0,   -0.0,   -0.3,   -0.4,   -0.1,   -0.5,  999.0,  999.0,    0.2,    0.2,  999.0,  999.0,  999.0,  999.0,  999.0,  999.0,  999.0,  999.0,  999.0,  999.0,  999.0,  999.0,  999.0
2012/03/23 00:20,  999.0,   -0.1,    0.5,    1.3,    1.0,    0.8,    1.3,    0.5,    1.5,    5.4,    5.4,    5.5,    4.0,    3.4,    2.5,    2.7,    3.5,  999.0,  999.0,  999.0,  999.0,  999.0,  999.0,  999.0,   -0.2,    0.1,    0.0,    0.2,    0.4,    0.1,  999.0,   -0.2,  999.0,  999.0,  999.0,  999.0,  999.0,  999.0,  999.0,  999.0,  999.0,  999.0,  999.0,  999.0,   -0.0,    0.2,   -0.0,   -0.0,   -0.2,  999.0,  999.0,  999.0,   -0.2,    0.3,   -0.0,   -0.3,    0.2,    0.1,    0.1,   -0.1,   -0.2,    0.2,   -0.1,   -0.0,   -0.0,    0.1,    0.0,    0.0,    0.2,  999.0,  999.0,  999.0,  999.0,  999.0,  999.0,  999.0,  999.0,  999.0,  999.0,  999.0
2012/03/23 00:30,  999.0,    0.5,    0.2,    0.8,    0.7,    2.1,    3.5,    3.7,    4.0,    6.1,    6.3,    4.7,    3.5,    2.2,    1.7,    3.4,    5.1,    4.9,  999.0,  999.0,  999.0,  999.0,  999.0,   -2.0,   -0.1,  999.0,    0.0,  999.0,   -0.1,    0.7,    0.2,    0.4,   -0.1,   -0.1,  999.0,  999.0,  999.0,  999.0,  999.0,  999.0,   -0.8,   -0.8,  999.0,   -0.8,   -0.0,  999.0,    0.0,    0.1,   -0.1,  999.0,    0.4,    0.4,    0.1,   -0.1,   -0.2,   -0.0,    0.3,    0.2,    0.0,    0.2,    0.0,    0.3,   -0.2,   -0.2,  999.0,  999.0,   -0.2,  999.0,    0.0,  999.0,  999.0,  999.0,  999.0,  999.0,  999.0,  999.0,  999.0,  999.0,  999.0,  999.0
2012/03/23 00:40,  999.0,    1.3,    0.9,    0.4,    1.4,    3.6,    2.7,    3.5,    3.1,    5.6,    5.3,    4.7,    4.9,    2.9,    3.0,    2.6,    3.8,  999.0,  999.0,  999.0,  999.0,  999.0,  999.0,  999.0,  999.0,  999.0,    0.1,    0.7,   -0.1,   -0.4,   -0.3,   -0.3,   -0.6,    0.2,   -0.2,   -0.0,  999.0,   -0.3,    0.1,  999.0,  999.0,    0.0,  999.0,   -0.2,   -0.1,   -0.2,    0.1,    0.0,  999.0,    0.1,   -0.0,    0.0,    0.2,    0.1,   -0.1,   -0.2,    0.0,   -0.2,    0.1,   -0.3,    0.1,    0.0,   -0.1,   -0.1,    0.1,   -0.0,   -0.0,  999.0,  999.0,  999.0,  999.0,  999.0,  999.0,  999.0,  999.0,  999.0,  999.0,  999.0,  999.0,  999.0
2012/03/23 00:50,  999.0,   -0.3,    0.7,   -0.1,    1.1,    1.7,    2.6,    2.1,    4.6,    6.0,    7.8,    8.6,    8.9,    9.8,   10.5,  999.0,  999.0,  999.0,  999.0,  999.0,  999.0,  999.0,  999.0,   -0.4,    0.0,   -0.0,    0.1,    0.0,    0.2,  999.0,   -0.0,    0.1,   -0.4,   -0.2,  999.0,    0.3,  999.0,    0.4,   -0.5,   -0.1,   -0.6,  999.0,   -0.2,   -0.1,   -0.1,   -0.1,   -0.1,   -0.1,   -0.2,   -0.1,    0.1,    0.1,    0.3,   -0.0,    0.0,   -0.2,    0.0,   -0.1,    0.2,    0.2,    0.1,    0.2,    0.1,   -0.3,   -0.4,   -0.2,  999.0,  999.0,  999.0,  999.0,  999.0,  999.0,  999.0,  999.0,  999.0,  999.0,  999.0,  999.0,  999.0,  999.0
2012/03/23 01:00,  999.0,  999.0,  999.0,    1.1,    0.1,  999.0,    0.5,    2.4,    4.4,    6.5,    8.3,    7.4,    8.7,    7.0,    8.5,    8.0,  999.0,  999.0,  999.0,  999.0,  999.0,   -1.9,   -1.0,    0.0,    0.3,   -0.1,   -0.1,   -0.0,   -0.1,    0.2,   -0.0,    0.0,   -0.2,   -0.0,  999.0,  999.0,    0.3,  999.0,    0.6,    0.0,   -0.0,   -0.0,   -0.0,   -0.0,   -0.0,   -0.1,   -0.1,   -0.2,    0.1,    0.3,    0.2,   -0.1,   -0.2,   -0.1,   -0.2,    0.1,    0.1,   -0.1,   -0.1,   -0.1,    0.0,    0.2,   -0.2,   -0.1,    0.0,    0.5,   -0.1,  999.0,    0.2,  999.0,  999.0,  999.0,  999.0,  999.0,  999.0,  999.0,  999.0,  999.0,  999.0,  999.0
2012/03/23 01:10,  999.0,    0.5,    0.1,    0.6,    0.1,    0.6,    2.0,    3.0,    5.1,    6.9,    6.4,    6.6,    6.4,    7.0,    7.1,    8.9,  999.0,   12.0,  999.0,  999.0,  999.0,  999.0,   -0.8,   -0.1,    0.0,   -0.1,    0.0,   -0.1,   -0.3,    0.1,   -0.0,    0.1,    0.1,    0.1,  999.0,  999.0,    0.1,   -0.1,  999.0,  999.0,   -0.5,   -0.0,   -0.2,   -0.2,    0.0,   -0.2,   -0.5,   -0.0,   -0.1,   -0.0,   -0.1,   -0.2,   -0.0,   -0.1,    0.2,   -0.0,    0.2,   -0.0,    0.2,   -0.1,   -0.1,    0.2,    0.1,  999.0,    0.1,    0.0,  999.0,  999.0,  999.0,  999.0,  999.0,  999.0,  999.0,  999.0,  999.0,  999.0,  999.0,  999.0,  999.0,  999.0
2012/03/23 01:20,  999.0,    1.2,   -0.8,    0.4,   -0.0,    0.2,    0.6,    0.5,    2.2,    4.2,    4.4,    4.1,    4.0,    5.4,    5.3,    5.2,  999.0,  999.0,  999.0,  999.0,  999.0,   -1.1,  999.0,    0.2,    0.2,    0.1,   -0.0,    0.3,    0.2,    0.1,   -0.2,   -0.2,  999.0,    0.2,  999.0,  999.0,   -0.4,   -0.0,   -0.1,    0.1,   -0.2,   -0.6,   -0.4,   -0.1,    0.3,   -0.1,    0.2,   -0.1,   -0.1,   -0.0,   -0.1,    0.1,   -0.3,   -0.3,   -0.1,    0.3,   -0.0,    0.1,   -0.2,    0.2,   -0.0,   -0.1,   -0.1,  999.0,  999.0,  999.0,   -0.2,    0.1,    0.2,  999.0,  999.0,  999.0,  999.0,  999.0,  999.0,  999.0,  999.0,  999.0,  999.0,  999.0
2012/03/23 01:30,  999.0,    1.5,    1.0,    0.3,    0.9,    0.8,    0.3,    1.3,    2.8,    3.0,    4.0,    3.6,    5.9,    6.1,  999.0,  999.0,  999.0,  999.0,  999.0,    1.3,   -0.4,   -0.3,   -0.1,    0.1,   -0.0,   -0.0,   -0.2,    0.0,    0.1,   -0.0,    0.0,   -0.1,   -0.0,  999.0,   -0.2,  999.0,  999.0,    0.5,    0.2,  999.0,   -0.5,  999.0,   -0.3,   -0.2,   -0.4,   -0.2,    0.0,    0.2,    0.1,  999.0,   -0.2,  999.0,   -0.3,   -0.4,   -0.2,   -0.0,   -0.0,   -0.0,   -0.3,   -0.1,   -0.2,    0.0,   -0.1,  999.0,    0.1,   -0.1,   -0.0,   -0.2,   -0.2,  999.0,  999.0,  999.0,  999.0,  999.0,  999.0,  999.0,  999.0,  999.0,  999.0,  999.0
2012/03/23 01:40,  999.0,    0.4,    0.1,    0.4,    1.2,    2.0,    3.8,    4.8,    4.1,    2.8,    3.6,    4.6,    5.1,    6.9,    7.8,    9.4,   12.7,  999.0,  999.0,   -1.4,   -0.8,   -0.7,    0.0,    0.1,   -0.0,   -0.0,   -0.1,   -0.1,   -0.0,    0.1,   -0.4,   -0.2,    0.4,   -0.1,   -0.6,  999.0,  999.0,  999.0,  999.0,    0.0,  999.0,   -0.5,   -0.0,   -0.2,    0.1,  999.0,   -0.3,   -0.2,   -0.0,    0.6,   -0.0,    0.1,    0.2,   -0.4,    0.2,    0.4,    0.1,   -0.4,   -0.0,   -0.2,    0.0,   -0.0,    0.0,   -0.0,    0.1,    0.2,    0.2,  999.0,    0.1,  999.0,  999.0,  999.0,  999.0,  999.0,  999.0,  999.0,  999.0,  999.0,  999.0,  999.0
2012/03/23 01:50,  999.0,   -0.1,    0.0,    2.1,    2.0,    5.1,  999.0,    3.1,    4.0,    4.6,    3.8,    3.8,    5.0,    6.5,    5.7,    8.1,  999.0,  999.0,  999.0,   -3.4,   -2.3,   -0.2,    0.1,   -0.2,    0.1,    0.1,    0.3,    0.2,   -0.2,   -0.1,   -0.1,  999.0,    0.0,    0.2,   -0.1,    0.0,  999.0,  999.0,  999.0,   -0.4,   -0.7,  999.0,   -0.2,   -0.1,   -0.0,  999.0,   -0.1,    0.1,   -0.0,   -0.0,   -0.1,    0.2,    0.0,    0.2,   -0.1,   -0.1,    0.2,   -0.0,   -0.2,   -0.1,    0.1,   -0.2,   -0.0,    0.1,   -0.2,    0.0,   -0.1,   -0.2,  999.0,  999.0,  999.0,  999.0,  999.0,  999.0,  999.0,  999.0,  999.0,  999.0,  999.0,  999.0
2012/03/23 02:00,  999.0,    0.7,    0.9,    1.5,    2.9,    4.0,  999.0,  999.0,    4.6,    3.1,    3.1,    2.4,    3.4,    4.0,    8.9,  999.0,  999.0,  999.0,  999.0,   -2.2,   -0.9,   -0.1,   -0.1,  999.0,    0.2,    0.1,  999.0,    0.3,  999.0,  999.0,    0.1,    0.1,  999.0,  999.0,  999.0,  999.0,  999.0,  999.0,  999.0,   -0.1,  999.0,  999.0,  999.0,   -0.3,   -0.3,    0.1,    0.3,    0.2,   -0.2,   -0.0,    0.1,   -0.0,   -0.0,    0.0,    0.1,    0.2,   -0.1,    0.0,   -0.0,    0.0,   -0.2,   -0.2,   -0.1,   -0.1,   -0.0,  999.0,   -0.1,   -0.1,    0.2,  999.0,  999.0,  999.0,  999.0,  999.0,  999.0,  999.0,  999.0,  999.0,  999.0,  999.0
2012/03/23 02:10,  999.0,   -1.0,    2.2,    2.2,    1.7,    3.3,    5.9,    4.9,    3.5,    3.1,    3.1,    6.1,    6.4,    7.7,  999.0,  999.0,  999.0,  999.0,  999.0,   -2.7,   -1.2,   -0.2,  999.0,  999.0,   -0.2,    0.1,  999.0,    0.1,   -0.1,   -0.3,  999.0,    0.1,  999.0,  999.0,  999.0,  999.0,  999.0,  999.0,  999.0,   -0.1,   -0.6,   -0.4,   -0.6,    0.0,    0.1,    0.3,   -0.0,   -0.2,    0.1,   -0.3,   -0.2,   -0.1,    0.1,    0.1,   -0.0,   -0.1,   -0.0,   -0.2,    0.3,    0.0,   -0.0,   -0.1,   -0.0,    0.1,   -0.1,    0.0,    0.0,   -0.0,   -0.0,  999.0,  999.0,  999.0,  999.0,  999.0,  999.0,  999.0,  999.0,  999.0,  999.0,  999.0
2012/03/23 02:20,  999.0,    0.5,    1.0,    1.0,    3.5,    5.0,    3.9,    2.1,    2.0,    2.2,    3.3,    4.9,    4.9,  999.0,  999.0,  999.0,  999.0,  999.0,   -8.4,   -4.2,   -1.2,   -0.5,   -0.1,    0.1,   -0.1,  999.0,   -0.4,   -0.0,   -0.2,   -0.2,   -0.1,    0.0,   -0.2,    0.1,  999.0,  999.0,  999.0,  999.0,    0.1,   -0.6,   -0.6,   -0.6,   -0.2,   -0.1,    0.3,    0.5,    0.2,   -0.1,   -0.1,  999.0,   -0.0,   -0.1,   -0.1,   -0.1,   -0.0,   -0.0,    0.0,   -0.1,   -0.1,   -0.1,    0.0,    0.1,   -0.1,    0.0,  999.0,   -0.6,   -0.1,    0.3,   -0.3,  999.0,  999.0,  999.0,  999.0,  999.0,  999.0,  999.0,  999.0,  999.0,  999.0,  999.0
2012/03/23 02:30,  999.0,   -0.0,    1.1,  999.0,    3.1,    3.7,    3.7,    3.5,    3.8,    2.0,  999.0,  999.0,  999.0,  999.0,  999.0,  999.0,  999.0,   -5.5,   -4.5,   -2.6,   -0.1,    0.2,  999.0,  999.0,   -0.1,   -0.2,    0.0,   -0.0,   -0.1,   -0.1,   -0.3,    0.1,  999.0,  999.0,  999.0,  999.0,  999.0,  999.0,  999.0,    0.2,   -0.5,   -0.1,   -0.2,    0.0,   -0.0,    0.1,  999.0,   -0.2,    0.1,    0.2,    0.3,    0.2,    0.1,   -0.1,    0.1,    0.1,   -0.0,    0.0,    0.1,    0.2,   -0.0,    0.1,    0.2,    0.3,   -0.1,   -0.0,   -0.1,   -0.2,    0.0,  999.0,  999.0,  999.0,  999.0,  999.0,  999.0,  999.0,  999.0,  999.0,  999.0,  999.0
2012/03/23 02:40,  999.0,   -0.8,   -0.1,    0.7,    2.3,    3.3,    3.4,    3.3,    2.0,    1.8,  999.0,  999.0,  999.0,  999.0,  999.0,  999.0,  999.0,   -6.7,   -4.8,   -1.8,   -0.2,   -0.2,  999.0,    0.1,    0.0,    0.4,    0.1,   -0.1,   -0.4,    0.3,    0.2,    0.1,  999.0,   -0.3,    0.1,  999.0,  999.0,  999.0,  999.0,  999.0,   -0.8,   -1.0,   -0.2,    0.1,   -0.2,   -0.3,   -0.1,    0.0,   -0.1,   -0.0,    0.0,    0.1,    0.1,    0.1,   -0.2,    0.0,   -0.2,    0.1,    0.3,    0.6,    0.9,   -0.0,   -0.1,   -0.1,    0.0,    0.0,    0.3,   -0.0,    0.1,  999.0,  999.0,  999.0,  999.0,  999.0,  999.0,  999.0,  999.0,  999.0,  999.0,  999.0
2012/03/23 02:50,  999.0,    0.4,   -0.2,    0.2,    0.8,    1.3,    2.3,    2.0,    1.4,    2.0,    3.4,    3.6,    3.3,    4.5,  999.0,  999.0,  999.0,  999.0,   -0.9,   -0.0,    0.2,    0.2,    0.1,   -0.0,   -0.1,    0.3,   -0.1,  999.0,  999.0,  999.0,    0.1,   -0.4,  999.0,  999.0,  999.0,  999.0,  999.0,  999.0,  999.0,  999.0,  999.0,  999.0,  999.0,   -0.1,  999.0,    0.2,  999.0,  999.0,  999.0,  999.0,  999.0,   34.7,   32.8,   35.5,   36.6,  999.0,  999.0,  999.0,  999.0,  999.0,  999.0,  999.0,  999.0,  999.0,  999.0,  999.0,  999.0,  999.0,  999.0,  999.0,  999.0,  999.0,  999.0,  999.0,  999.0,  999.0,  999.0,  999.0,  999.0,  999.0
2012/03/23 03:00,  999.0,    0.1,   -0.1,    0.4,    0.0,    0.3,    0.7,    0.1,    1.0,    1.9,    1.6,    1.3,    1.9,   -0.4,   -3.5,  999.0,  999.0,  999.0,   -0.4,   -0.1,    0.0,   -0.1,  999.0,   -0.3,   -0.4,   -0.1,   -0.0,    0.1,   -0.2,    0.0,   -0.2,  999.0,  999.0,  999.0,  999.0,  999.0,  999.0,  999.0,  999.0,  999.0,  999.0,  999.0,   27.5,   27.2,   27.9,   29.1,   30.7,   32.5,   34.6,   35.4,   36.5,   37.3,   37.5,   38.5,   39.3,   40.2,   42.2,   43.0,   42.1,  999.0,  999.0,  999.0,  999.0,  999.0,  999.0,  999.0,  999.0,  999.0,  999.0,  999.0,  999.0,  999.0,  999.0,  999.0,  999.0,  999.0,  999.0,  999.0,  999.0,  999.0
2012/03/23 03:10,  999.0,   -0.1,  999.0,    0.6,   -0.0,    0.1,    0.4,    1.4,    3.0,    3.4,    1.8,    1.7,    3.0,    6.0,    6.0,   11.2,   12.1,   19.3,   19.8,   13.7,  999.0,  999.0,  999.0,  999.0,  999.0,  999.0,  999.0,  999.0,  999.0,  999.0,  999.0,  999.0,  999.0,  999.0,  999.0,   22.9,   22.4,  999.0,  999.0,  999.0,   23.7,   25.1,   26.3,   26.5,   27.9,   29.5,   30.7,   32.2,   33.8,   35.5,   36.5,   38.3,   38.2,   40.5,   39.3,   41.4,   41.5,   42.7,  999.0,  999.0,  999.0,  999.0,  999.0,  999.0,  999.0,  999.0,  999.0,  999.0,  999.0,  999.0,  999.0,  999.0,  999.0,  999.0,  999.0,  999.0,  999.0,  999.0,  999.0,  999.0
2012/03/23 03:20,  999.0,    0.0,    1.9,    1.9,    0.9,    0.5,    0.3,    1.3,    2.3,    1.3,   -1.1,    3.9,    2.6,    7.4,    8.1,   11.5,   15.2,   15.3,   19.0,  999.0,  999.0,  999.0,  999.0,  999.0,  999.0,  999.0,  999.0,  999.0,  999.0,  999.0,  999.0,  999.0,  999.0,   24.2,   23.7,   23.3,   23.3,  999.0,  999.0,  999.0,  999.0,   20.9,   23.3,   23.9,   25.2,   27.4,   29.3,   31.4,   33.9,   35.7,   37.6,   39.5,   39.7,   39.4,   39.9,   41.0,   40.9,  999.0,   41.2,  999.0,  999.0,  999.0,  999.0,  999.0,  999.0,  999.0,  999.0,  999.0,  999.0,  999.0,  999.0,  999.0,  999.0,  999.0,  999.0,  999.0,  999.0,  999.0,  999.0,  999.0
2012/03/23 03:30,  999.0,    0.7,    1.7,    2.7,    1.2,    0.5,   -0.0,   -0.0,    0.4,    1.7,    3.2,    4.6,    6.8,    9.6,   12.7,   14.5,   11.3,   17.2,   16.3,  999.0,  999.0,  999.0,   20.2,  999.0,   19.5,  999.0,  999.0,  999.0,  999.0,  999.0,  999.0,  999.0,   25.2,   25.9,   22.0,   22.2,   22.5,  999.0,  999.0,   16.9,   18.6,   20.6,   22.3,   22.7,   25.3,   29.4,   32.0,   35.3,   37.5,   39.1,   38.6,   39.5,   40.6,   41.3,   40.9,   40.9,   41.9,   41.1,   41.2,   42.8,   42.6,   42.1,   43.7,   44.7,   43.6,   45.5,   44.8,  999.0,  999.0,  999.0,  999.0,  999.0,  999.0,  999.0,  999.0,  999.0,  999.0,  999.0,  999.0,  999.0
2012/03/23 03:40,  999.0,   -0.2,    1.2,    1.0,    0.5,    0.3,   -0.8,   -1.0,   -0.3,    1.0,   -0.6,    3.6,    5.6,    8.2,   10.5,   14.7,   13.8,    8.7,    0.3,    0.1,    0.1,    0.2,  999.0,  999.0,  999.0,  999.0,  999.0,  999.0,  999.0,  999.0,  999.0,  999.0,   24.5,   25.2,   22.0,   23.1,  999.0,  999.0,   19.3,   19.9,   20.5,   21.1,   22.3,   24.5,  999.0,   30.9,   35.2,   17.9,   12.8,   19.0,    9.7,   13.3,    8.6,    8.4,    8.6,   10.3,    8.6,   14.1,   14.5,    0.2,  999.0,   10.8,   15.0,    0.1,   -0.4,   -0.3,   -0.1,    0.0,  999.0,  999.0,  999.0,  999.0,  999.0,  999.0,  999.0,  999.0,  999.0,  999.0,  999.0,  999.0
2012/03/23 03:50,  999.0,    0.1,    0.8,    0.3,    0.1,    0.0,   -0.1,    0.4,    0.7,    4.0,    4.3,    5.3,    4.7,    3.2,  999.0,  999.0,    2.2,    2.9,    1.8,    0.3,    0.1,    0.0,    0.7,    1.1,    0.6,    1.1,    2.4,  999.0,  999.0,  999.0,  999.0,  999.0,  999.0,   20.9,   21.3,  999.0,   23.1,   23.6,   21.2,  999.0,  999.0,  999.0,  999.0,  999.0,  999.0,  999.0,  999.0,  999.0,  999.0,  999.0,  999.0,  999.0,    0.5,    0.2,  999.0,   -0.2,   -0.0,    0.1,  999.0,    0.6,   -0.1,    0.2,    0.5,  999.0,   -0.3,   -0.2,   -0.2,   -0.6,    0.3,  999.0,  999.0,  999.0,  999.0,  999.0,  999.0,  999.0,  999.0,  999.0,  999.0,  999.0
2012/03/23 04:00,  999.0,   -0.2,   -0.8,    0.1,    0.4,   -0.3,    0.0,    0.4,    1.5,  999.0,  999.0,    5.1,    3.7,    4.3,    1.7,  999.0,  999.0,    4.0,    1.8,    0.4,    0.1,    0.1,    0.6,    0.7,    0.8,    0.9,    2.0,    2.7,    1.7,  999.0,  999.0,  999.0,  999.0,  999.0,  999.0,  999.0,  999.0,  999.0,  999.0,  999.0,   19.2,   21.3,   21.9,  999.0,  999.0,  999.0,  999.0,  999.0,  999.0,  999.0,  999.0,  999.0,  999.0,  999.0,  999.0,  999.0,  999.0,  999.0,  999.0,    0.2,  999.0,  999.0,   -0.0,   -0.3,   -0.4,  999.0,  999.0,  999.0,  999.0,  999.0,  999.0,  999.0,  999.0,  999.0,  999.0,  999.0,  999.0,  999.0,  999.0,  999.0
2012/03/23 04:10,  999.0,   -0.2,    0.5,    0.4,    0.0,    0.3,    0.7,    0.8,    0.6,    2.4,    4.5,    2.6,    1.2,    3.0,    4.1,    3.1,    4.4,    4.0,    2.1,    0.8,    0.5,    0.4,    1.4,    0.9,    0.0,    1.4,    3.2,    6.6,  999.0,  999.0,  999.0,   19.1,   20.2,  999.0,  999.0,  999.0,  999.0,  999.0,  999.0,  999.0,   19.2,   20.0,   22.9,  999.0,  999.0,  999.0,   35.5,   35.8,   37.3,   38.0,   37.2,   37.4,   38.1,   39.4,   39.0,   39.6,   39.5,   27.1,   41.0,   13.1,   40.4,   40.2,  999.0,  999.0,  999.0,  999.0,  999.0,  999.0,  999.0,  999.0,  999.0,  999.0,  999.0,  999.0,  999.0,  999.0,  999.0,  999.0,  999.0,  999.0
2012/03/23 04:20,  999.0,   -0.1,    0.0,   -0.0,   -0.0,    0.4,    1.1,    0.7,    1.2,    1.9,    3.0,    2.8,    3.6,    3.9,    3.2,    5.0,    5.1,    4.6,    2.4,    0.8,    0.1,    0.3,    0.6,    1.4,    0.5,  999.0,  999.0,  999.0,  999.0,  999.0,  999.0,   20.1,   20.6,  999.0,  999.0,  999.0,  999.0,  999.0,  999.0,  999.0,   19.9,   21.6,   24.8,   27.6,   32.7,   35.3,   35.3,   35.3,   35.1,   36.6,   35.8,   37.2,   38.5,   39.7,   39.6,   41.1,   40.2,   40.3,   41.7,   41.8,   42.1,   41.2,   42.1,   42.7,   43.1,   43.9,   43.9,   43.8,   43.6,  999.0,  999.0,  999.0,  999.0,  999.0,  999.0,  999.0,  999.0,  999.0,  999.0,  999.0
2012/03/23 04:30,  999.0,   -0.0,    0.1,    0.2,    0.1,    0.6,    0.6,    0.8,    0.8,    3.5,    7.2,    5.9,    5.9,    5.8,  999.0,   11.3,   10.5,   12.0,    9.1,   10.1,  999.0,  999.0,  999.0,  999.0,  999.0,  999.0,  999.0,  999.0,  999.0,  999.0,   20.7,   21.8,   22.5,  999.0,  999.0,  999.0,  999.0,  999.0,  999.0,   20.5,   20.3,   22.5,   26.1,   30.2,   33.4,   34.9,   35.1,   33.9,   34.3,   35.3,   35.8,   38.0,   38.5,   39.5,   38.4,   39.7,   40.3,   40.7,   41.8,   40.7,  999.0,  999.0,  999.0,  999.0,  999.0,  999.0,  999.0,  999.0,  999.0,  999.0,  999.0,  999.0,  999.0,  999.0,  999.0,  999.0,  999.0,  999.0,  999.0,  999.0
2012/03/23 04:40,  999.0,   -0.2,    0.4,    0.4,    0.2,    0.1,    0.3,    1.0,    2.6,    4.5,    5.2,    6.7,    7.1,    8.0,    9.3,   11.8,   12.6,   15.8,   15.3,   15.3,   11.5,  999.0,  999.0,  999.0,  999.0,  999.0,  999.0,  999.0,   23.1,   22.6,   22.3,   22.8,   23.3,  999.0,  999.0,  999.0,   22.8,   23.4,   21.1,  999.0,   21.6,   23.9,  999.0,  999.0,  999.0,  999.0,  999.0,  999.0,  999.0,  999.0,  999.0,  999.0,  999.0,  999.0,  999.0,  999.0,  999.0,  999.0,  999.0,  999.0,  999.0,  999.0,  999.0,  999.0,  999.0,  999.0,  999.0,  999.0,  999.0,  999.0,  999.0,  999.0,  999.0,  999.0,  999.0,  999.0,  999.0,  999.0,  999.0,  999.0
2012/03/23 04:50,  999.0,   -0.3,    0.1,    0.3,    0.2,   -0.3,   -0.0,    0.7,    1.6,  999.0,    6.2,    6.4,    6.7,    8.0,    9.9,   11.3,   13.1,   15.2,   16.8,  999.0,  999.0,  999.0,  999.0,  999.0,   17.4,  999.0,  999.0,   23.6,   24.7,   22.5,  999.0,  999.0,  999.0,  999.0,  999.0,  999.0,  999.0,  999.0,  999.0,  999.0,  999.0,  999.0,  999.0,  999.0,  999.0,  999.0,  999.0,  999.0,  999.0,  999.0,  999.0,  999.0,  999.0,  999.0,  999.0,  999.0,  999.0,  999.0,  999.0,  999.0,  999.0,  999.0,  999.0,  999.0,  999.0,  999.0,  999.0,  999.0,  999.0,  999.0,  999.0,  999.0,  999.0,  999.0,  999.0,  999.0,  999.0,  999.0,  999.0,  999.0
2012/03/23 05:00,  999.0,    0.7,    0.6,    0.3,    0.2,    0.6,    1.1,    0.6,    1.8,    4.2,    5.7,    5.6,    6.9,    8.0,    7.5,    8.4,    8.4,   10.0,   10.3,  999.0,  999.0,  999.0,  999.0,  999.0,   17.7,   22.4,  999.0,  999.0,  999.0,  999.0,  999.0,  999.0,  999.0,  999.0,  999.0,  999.0,  999.0,  999.0,  999.0,  999.0,  999.0,  999.0,  999.0,  999.0,  999.0,  999.0,  999.0,  999.0,  999.0,  999.0,  999.0,  999.0,  999.0,  999.0,  999.0,  999.0,  999.0,  999.0,  999.0,  999.0,  999.0,  999.0,  999.0,  999.0,  999.0,  999.0,  999.0,  999.0,  999.0,  999.0,  999.0,  999.0,  999.0,  999.0,  999.0,  999.0,  999.0,  999.0,  999.0,  999.0
2012/03/23 05:10,  999.0,   -0.1,    0.5,    0.2,    0.2,   -0.1,    0.9,    1.0,    2.2,    4.0,    5.0,    5.6,    5.2,    4.8,    5.8,    6.7,    4.5,    4.4,    0.8,  999.0,  999.0,   -0.2,  999.0,  999.0,  999.0,  999.0,  999.0,  999.0,  999.0,  999.0,  999.0,  999.0,  999.0,  999.0,  999.0,  999.0,  999.0,  999.0,  999.0,  999.0,  999.0,  999.0,  999.0,  999.0,  999.0,  999.0,  999.0,  999.0,  999.0,  999.0,  999.0,  999.0,  999.0,  999.0,  999.0,  999.0,  999.0,  999.0,  999.0,  999.0,  999.0,  999.0,  999.0,  999.0,  999.0,  999.0,  999.0,  999.0,  999.0,  999.0,  999.0,  999.0,  999.0,  999.0,  999.0,  999.0,  999.0,  999.0,  999.0,  999.0
2012/03/23 05:20,  999.0,   -0.1,    0.4,    0.2,    0.3,    0.2,    0.4,    0.3,    1.4,    1.8,    3.8,    4.7,    3.5,    3.4,    3.6,    5.4,    3.2,    0.2,   -0.1,    1.3,    1.3,    0.6,  999.0,  999.0,  999.0,  999.0,  999.0,  999.0,  999.0,  999.0,  999.0,  999.0,  999.0,  999.0,  999.0,  999.0,  999.0,  999.0,  999.0,  999.0,  999.0,  999.0,  999.0,  999.0,  999.0,  999.0,  999.0,  999.0,  999.0,  999.0,  999.0,  999.0,  999.0,  999.0,  999.0,  999.0,  999.0,  999.0,  999.0,  999.0,  999.0,  999.0,  999.0,  999.0,  999.0,  999.0,  999.0,  999.0,  999.0,  999.0,  999.0,  999.0,  999.0,  999.0,  999.0,  999.0,  999.0,  999.0,  999.0,  999.0
2012/03/23 05:30,  999.0,   -0.1,    0.8,    0.9,    0.4,    0.3,    0.5,    0.5,    0.8,    1.0,    2.1,    2.6,    3.4,    4.4,    5.7,    7.0,    9.6,    3.8,    4.6,    6.3,    2.4,  999.0,  999.0,  999.0,  999.0,  999.0,  999.0,  999.0,  999.0,  999.0,  999.0,  999.0,  999.0,  999.0,  999.0,  999.0,  999.0,  999.0,  999.0,  999.0,  999.0,  999.0,  999.0,  999.0,  999.0,  999.0,  999.0,  999.0,  999.0,  999.0,  999.0,  999.0,  999.0,  999.0,  999.0,  999.0,  999.0,  999.0,  999.0,  999.0,  999.0,  999.0,  999.0,  999.0,  999.0,  999.0,  999.0,  999.0,  999.0,  999.0,  999.0,  999.0,  999.0,  999.0,  999.0,  999.0,  999.0,  999.0,  999.0,  999.0
2012/03/23 05:40,  999.0,  999.0,    2.4,    1.4,    1.1,    0.9,    1.1,    1.0,    0.9,    2.4,    3.3,    3.8,    3.3,    4.5,    6.7,    7.7,    8.2,  999.0,  999.0,  999.0,  999.0,  999.0,  999.0,  999.0,  999.0,  999.0,  999.0,  999.0,  999.0,  999.0,  999.0,  999.0,  999.0,  999.0,  999.0,  999.0,  999.0,  999.0,  999.0,  999.0,  999.0,  999.0,  999.0,  999.0,  999.0,  999.0,  999.0,  999.0,  999.0,  999.0,  999.0,  999.0,  999.0,  999.0,  999.0,  999.0,  999.0,  999.0,  999.0,  999.0,  999.0,  999.0,  999.0,  999.0,  999.0,  999.0,  999.0,  999.0,  999.0,  999.0,  999.0,  999.0,  999.0,  999.0,  999.0,  999.0,  999.0,  999.0,  999.0,  999.0
2012/03/23 05:50,  999.0,    0.2,    1.4,    1.1,    0.9,    0.4,    0.6,    1.2,    0.9,    1.7,    2.4,    2.8,    3.0,    3.5,    5.0,    5.3,    6.3,    2.3,  999.0,  999.0,  999.0,  999.0,  999.0,  999.0,  999.0,  999.0,  999.0,  999.0,  999.0,  999.0,  999.0,  999.0,  999.0,  999.0,  999.0,  999.0,  999.0,  999.0,  999.0,  999.0,  999.0,  999.0,  999.0,  999.0,  999.0,  999.0,  999.0,  999.0,  999.0,  999.0,  999.0,  999.0,  999.0,  999.0,  999.0,  999.0,  999.0,  999.0,  999.0,  999.0,  999.0,  999.0,  999.0,  999.0,  999.0,  999.0,  999.0,  999.0,  999.0,  999.0,  999.0,  999.0,  999.0,  999.0,  999.0,  999.0,  999.0,  999.0,  999.0,  999.0
2012/03/23 06:00,  999.0,    0.9,    1.0,    1.1,    0.7,    0.3,   -0.3,    0.0,    0.7,    2.2,    4.4,    5.9,    4.9,    4.6,    4.5,    4.9,    5.5,    3.7,    6.3,    7.3,   10.1,  999.0,  999.0,  999.0,  999.0,  999.0,  999.0,  999.0,  999.0,  999.0,  999.0,  999.0,  999.0,  999.0,  999.0,  999.0,  999.0,  999.0,  999.0,  999.0,  999.0,  999.0,  999.0,  999.0,  999.0,  999.0,  999.0,  999.0,  999.0,  999.0,  999.0,  999.0,  999.0,  999.0,  999.0,  999.0,  999.0,  999.0,  999.0,  999.0,  999.0,  999.0,  999.0,  999.0,  999.0,  999.0,  999.0,  999.0,  999.0,  999.0,  999.0,  999.0,  999.0,  999.0,  999.0,  999.0,  999.0,  999.0,  999.0,  999.0
2012/03/23 06:10,  999.0,    0.1,    2.2,    1.1,   -0.1,   -1.1,   -1.0,   -1.1,   -0.4,    0.8,    2.7,    5.8,    6.3,    6.9,    7.3,    7.7,   10.7,   10.2,   10.5,    9.3,   11.6,  999.0,  999.0,  999.0,  999.0,  999.0,  999.0,  999.0,  999.0,  999.0,  999.0,  999.0,  999.0,  999.0,  999.0,  999.0,  999.0,  999.0,  999.0,  999.0,  999.0,  999.0,  999.0,  999.0,  999.0,  999.0,  999.0,  999.0,  999.0,  999.0,  999.0,  999.0,  999.0,  999.0,  999.0,  999.0,  999.0,  999.0,  999.0,  999.0,  999.0,  999.0,  999.0,  999.0,  999.0,  999.0,  999.0,  999.0,  999.0,  999.0,  999.0,  999.0,  999.0,  999.0,  999.0,  999.0,  999.0,  999.0,  999.0,  999.0
2012/03/23 06:20,  999.0,    0.8,    0.4,   -0.0,   -0.2,   -1.0,   -0.8,   -0.7,   -1.3,    0.2,    1.6,    3.3,    4.3,    5.0,    6.3,    7.1,    9.6,   11.5,   13.9,   15.6,   14.4,   16.0,  999.0,  999.0,   13.3,   15.1,  999.0,  999.0,  999.0,  999.0,  999.0,  999.0,  999.0,  999.0,  999.0,  999.0,  999.0,  999.0,  999.0,  999.0,  999.0,  999.0,  999.0,  999.0,  999.0,  999.0,  999.0,  999.0,  999.0,  999.0,  999.0,  999.0,  999.0,  999.0,  999.0,  999.0,  999.0,  999.0,  999.0,  999.0,  999.0,  999.0,  999.0,  999.0,  999.0,  999.0,  999.0,  999.0,  999.0,  999.0,  999.0,  999.0,  999.0,  999.0,  999.0,  999.0,  999.0,  999.0,  999.0,  999.0
2012/03/23 06:30,  999.0,    0.5,   -0.0,   -0.3,   -0.5,   -0.6,   -1.3,   -1.7,   -0.9,    1.3,    2.7,    5.5,    6.3,    5.2,    5.5,    7.8,   10.3,   12.5,  999.0,   12.9,   13.2,   13.9,  999.0,  999.0,   11.9,   14.0,   16.1,  999.0,  999.0,  999.0,  999.0,  999.0,  999.0,  999.0,  999.0,  999.0,  999.0,  999.0,  999.0,  999.0,  999.0,  999.0,  999.0,  999.0,  999.0,  999.0,  999.0,  999.0,  999.0,  999.0,  999.0,  999.0,  999.0,  999.0,  999.0,  999.0,  999.0,  999.0,  999.0,  999.0,  999.0,  999.0,  999.0,  999.0,  999.0,  999.0,  999.0,  999.0,  999.0,  999.0,  999.0,  999.0,  999.0,  999.0,  999.0,  999.0,  999.0,  999.0,  999.0,  999.0
2012/03/23 06:40,  999.0,   -0.8,   -1.5,   -0.6,   -0.8,   -0.7,   -0.9,   -0.9,    0.7,    1.6,    3.6,    5.0,    5.3,    4.4,    5.7,    8.2,    9.9,   10.4,  999.0,   13.6,   12.6,   12.9,   13.5,  999.0,  999.0,   11.9,   14.0,   15.4,  999.0,  999.0,  999.0,  999.0,  999.0,  999.0,  999.0,  999.0,  999.0,  999.0,  999.0,  999.0,  999.0,  999.0,  999.0,  999.0,  999.0,  999.0,  999.0,  999.0,  999.0,  999.0,  999.0,  999.0,  999.0,  999.0,  999.0,  999.0,  999.0,  999.0,  999.0,  999.0,  999.0,  999.0,  999.0,  999.0,  999.0,  999.0,  999.0,  999.0,  999.0,  999.0,  999.0,  999.0,  999.0,  999.0,  999.0,  999.0,  999.0,  999.0,  999.0,  999.0
2012/03/23 06:50,  999.0,    0.0,   -0.0,   -0.1,   -1.0,   -1.0,   -1.9,   -1.5,    2.1,    3.6,    7.1,    8.2,    7.2,    6.6,    7.4,   10.5,   12.0,  999.0,   13.6,   14.6,   13.7,   13.2,   12.6,   14.4,  999.0,  999.0,   13.3,   14.8,   15.0,  999.0,  999.0,  999.0,  999.0,  999.0,  999.0,  999.0,  999.0,  999.0,  999.0,  999.0,  999.0,  999.0,  999.0,  999.0,  999.0,  999.0,  999.0,  999.0,  999.0,  999.0,  999.0,  999.0,  999.0,  999.0,  999.0,  999.0,  999.0,  999.0,  999.0,  999.0,  999.0,  999.0,  999.0,  999.0,  999.0,  999.0,  999.0,  999.0,  999.0,  999.0,  999.0,  999.0,  999.0,  999.0,  999.0,  999.0,  999.0,  999.0,  999.0,  999.0
2012/03/23 07:00,  999.0,    0.3,   -0.1,   -0.2,   -1.2,   -0.3,   -0.2,    1.2,    1.4,    3.4,    4.7,    5.0,    5.2,    5.7,    5.9,    8.4,   11.2,  999.0,   13.0,   12.5,   11.8,   11.9,   12.2,   12.2,  999.0,  999.0,   11.6,   13.4,   15.5,  999.0,  999.0,  999.0,  999.0,  999.0,  999.0,  999.0,  999.0,  999.0,  999.0,  999.0,  999.0,  999.0,  999.0,  999.0,  999.0,  999.0,  999.0,  999.0,  999.0,  999.0,  999.0,  999.0,  999.0,  999.0,  999.0,  999.0,  999.0,  999.0,  999.0,  999.0,  999.0,  999.0,  999.0,  999.0,  999.0,  999.0,  999.0,  999.0,  999.0,  999.0,  999.0,  999.0,  999.0,  999.0,  999.0,  999.0,  999.0,  999.0,  999.0,  999.0
2012/03/23 07:10,  999.0,    0.1,    0.2,   -0.3,   -0.4,   -0.3,   -0.5,   -0.1,    0.4,    0.9,    2.8,    5.5,  999.0,    5.9,    7.2,   10.1,   11.7,  999.0,   13.0,   11.3,   11.4,   11.8,   12.0,   11.7,   12.0,   12.3,   12.2,   13.0,   14.3,  999.0,  999.0,  999.0,  999.0,  999.0,  999.0,  999.0,  999.0,  999.0,  999.0,  999.0,  999.0,  999.0,  999.0,  999.0,  999.0,  999.0,  999.0,  999.0,  999.0,  999.0,  999.0,  999.0,  999.0,  999.0,  999.0,  999.0,  999.0,  999.0,  999.0,  999.0,  999.0,  999.0,  999.0,  999.0,  999.0,  999.0,  999.0,  999.0,  999.0,  999.0,  999.0,  999.0,  999.0,  999.0,  999.0,  999.0,  999.0,  999.0,  999.0,  999.0
2012/03/23 07:20,  999.0,    0.3,    0.1,   -0.4,   -0.4,   -0.6,   -1.1,    0.2,    0.9,    3.2,    4.9,    5.3,    6.2,    6.9,    5.9,    8.1,   10.4,   11.5,   11.9,   10.9,   11.5,  999.0,   10.8,   10.8,   10.7,   11.3,    9.9,  999.0,  999.0,  999.0,  999.0,  999.0,  999.0,  999.0,  999.0,  999.0,  999.0,  999.0,  999.0,  999.0,  999.0,  999.0,  999.0,  999.0,  999.0,  999.0,  999.0,  999.0,  999.0,  999.0,  999.0,  999.0,  999.0,  999.0,  999.0,  999.0,  999.0,  999.0,  999.0,  999.0,  999.0,  999.0,  999.0,  999.0,  999.0,  999.0,  999.0,  999.0,  999.0,  999.0,  999.0,  999.0,  999.0,  999.0,  999.0,  999.0,  999.0,  999.0,  999.0,  999.0
2012/03/23 07:30,  999.0,    0.0,   -0.5,   -0.1,   -0.4,   -0.3,   -0.2,   -0.1,    0.1,    1.1,    3.2,    4.1,    5.7,    6.2,    5.3,    7.4,    9.0,   11.0,   11.0,    9.7,   10.3,   11.0,  999.0,    9.2,    9.3,   11.4,   12.5,   12.1,   14.6,    9.1,  999.0,  999.0,  999.0,  999.0,  999.0,  999.0,  999.0,  999.0,  999.0,  999.0,  999.0,  999.0,  999.0,  999.0,  999.0,  999.0,  999.0,  999.0,  999.0,  999.0,  999.0,  999.0,  999.0,  999.0,  999.0,  999.0,  999.0,  999.0,  999.0,  999.0,  999.0,  999.0,  999.0,  999.0,  999.0,  999.0,  999.0,  999.0,  999.0,  999.0,  999.0,  999.0,  999.0,  999.0,  999.0,  999.0,  999.0,  999.0,  999.0,  999.0
2012/03/23 07:40,  999.0,    0.2,   -0.5,   -0.0,   -0.2,   -0.2,   -0.4,   -0.5,   -0.7,    0.9,    1.7,    2.7,    4.9,    4.9,    4.0,    6.3,    8.2,  999.0,    7.5,    7.1,    8.4,   10.2,  999.0,  999.0,    9.0,   10.7,   11.8,   12.9,   13.8,  999.0,  999.0,  999.0,  999.0,  999.0,  999.0,  999.0,   18.3,  999.0,  999.0,  999.0,  999.0,  999.0,  999.0,  999.0,  999.0,  999.0,  999.0,  999.0,  999.0,  999.0,  999.0,  999.0,  999.0,  999.0,  999.0,  999.0,  999.0,  999.0,  999.0,  999.0,  999.0,  999.0,  999.0,  999.0,  999.0,  999.0,  999.0,  999.0,  999.0,  999.0,  999.0,  999.0,  999.0,  999.0,  999.0,  999.0,  999.0,  999.0,  999.0,  999.0
2012/03/23 07:50,  999.0,    0.1,   -0.0,    0.2,    0.0,   -0.1,    0.0,    0.0,   -0.1,    0.4,    1.4,    2.5,  999.0,    5.7,    4.0,    6.0,  999.0,  999.0,  999.0,    4.9,  999.0,  999.0,  999.0,  999.0,    8.5,   10.5,   11.6,   13.0,   14.6,  999.0,  999.0,  999.0,  999.0,  999.0,  999.0,  999.0,  999.0,  999.0,  999.0,  999.0,  999.0,  999.0,  999.0,  999.0,  999.0,  999.0,  999.0,  999.0,  999.0,  999.0,  999.0,  999.0,  999.0,  999.0,  999.0,  999.0,  999.0,   42.7,  999.0,  999.0,  999.0,  999.0,  999.0,  999.0,  999.0,  999.0,  999.0,  999.0,  999.0,  999.0,  999.0,  999.0,  999.0,  999.0,  999.0,  999.0,  999.0,  999.0,  999.0,  999.0
2012/03/23 08:00,  999.0,   -0.5,   -0.5,    0.0,   -0.4,   -0.3,   -0.2,    0.1,    0.4,    0.6,    2.0,    3.4,  999.0,    3.4,    2.2,    4.2,  999.0,    1.0,    0.4,    0.6,    0.5,  999.0,  999.0,  999.0,  999.0,    9.5,   11.1,   11.4,   14.0,  999.0,  999.0,  999.0,  999.0,  999.0,  999.0,  999.0,   17.2,  999.0,  999.0,  999.0,  999.0,  999.0,  999.0,  999.0,  999.0,  999.0,  999.0,  999.0,  999.0,  999.0,  999.0,  999.0,  999.0,   36.7,   34.9,   37.4,   40.1,   40.4,   41.4,  999.0,  999.0,  999.0,  999.0,  999.0,  999.0,  999.0,  999.0,  999.0,  999.0,  999.0,  999.0,  999.0,  999.0,  999.0,  999.0,  999.0,  999.0,  999.0,  999.0,  999.0
2012/03/23 08:10,  999.0,   -0.1,    0.1,   -0.2,   -0.2,   -0.2,   -0.5,   -0.5,    1.4,    1.1,    4.7,    6.7,  999.0,    1.3,    1.6,    3.6,  999.0,    0.3,    0.3,    0.6,    0.5,   -0.0,  999.0,  999.0,  999.0,    9.6,   11.0,   11.1,   13.6,  999.0,  999.0,  999.0,  999.0,  999.0,  999.0,   14.3,   17.6,   21.0,  999.0,  999.0,  999.0,  999.0,  999.0,  999.0,  999.0,  999.0,  999.0,  999.0,  999.0,  999.0,  999.0,  999.0,  999.0,  999.0,   36.4,   37.5,  999.0,  999.0,  999.0,  999.0,  999.0,  999.0,  999.0,  999.0,  999.0,  999.0,  999.0,  999.0,  999.0,  999.0,  999.0,  999.0,  999.0,  999.0,  999.0,  999.0,  999.0,  999.0,  999.0,  999.0
2012/03/23 08:20,  999.0,   -0.1,    0.0,   -0.2,   -0.2,   -0.2,   -1.1,   -0.5,   -0.0,    1.1,    4.3,    5.4,    4.9,    1.6,    1.9,    4.4,  999.0,  999.0,  999.0,    7.4,  999.0,  999.0,  999.0,  999.0,  999.0,  999.0,    9.9,   10.9,  999.0,  999.0,  999.0,  999.0,  999.0,  999.0,   16.1,   14.5,   16.9,   20.6,  999.0,  999.0,  999.0,  999.0,  999.0,  999.0,  999.0,  999.0,  999.0,  999.0,  999.0,  999.0,  999.0,  999.0,   35.7,   37.4,   38.8,   40.7,  999.0,  999.0,  999.0,  999.0,  999.0,  999.0,  999.0,  999.0,  999.0,  999.0,  999.0,  999.0,  999.0,  999.0,  999.0,  999.0,  999.0,  999.0,  999.0,  999.0,  999.0,  999.0,  999.0,  999.0
2012/03/23 08:30,  999.0,   -0.0,   -0.3,   -0.1,   -0.7,   -1.1,   -1.5,   -0.2,    1.1,    2.7,    5.2,    5.8,    6.5,    2.4,    2.9,    5.9,  999.0,  999.0,  999.0,    7.7,    9.2,  999.0,  999.0,  999.0,  999.0,  999.0,   10.4,   11.5,  999.0,  999.0,   15.3,   16.3,  999.0,  999.0,  999.0,  999.0,   18.1,  999.0,  999.0,  999.0,  999.0,  999.0,  999.0,  999.0,  999.0,  999.0,  999.0,  999.0,  999.0,  999.0,  999.0,  999.0,  999.0,   34.9,   36.0,   38.0,   39.7,  999.0,  999.0,  999.0,  999.0,  999.0,  999.0,  999.0,  999.0,  999.0,  999.0,  999.0,  999.0,  999.0,  999.0,  999.0,  999.0,  999.0,  999.0,  999.0,  999.0,  999.0,  999.0,  999.0
2012/03/23 08:40,  999.0,   -0.6,   -0.5,   -1.2,   -1.2,   -0.9,   -1.1,    0.1,    1.6,    3.0,    6.8,    6.8,    7.1,    3.6,    3.7,    5.6,    8.6,  999.0,  999.0,    8.1,    8.8,  999.0,  999.0,  999.0,  999.0,    9.4,   10.1,   11.5,  999.0,  999.0,  999.0,  999.0,  999.0,  999.0,  999.0,  999.0,  999.0,  999.0,  999.0,  999.0,  999.0,  999.0,  999.0,  999.0,  999.0,  999.0,  999.0,  999.0,  999.0,  999.0,  999.0,   34.4,   34.6,   36.6,   37.5,   38.6,   38.4,  999.0,   38.9,   40.0,  999.0,  999.0,  999.0,  999.0,  999.0,  999.0,  999.0,  999.0,  999.0,  999.0,  999.0,  999.0,  999.0,  999.0,  999.0,  999.0,  999.0,  999.0,  999.0,  999.0
2012/03/23 08:50,  999.0,   -1.0,   -0.1,   -0.4,   -1.1,   -0.7,   -0.1,    0.6,    2.8,    5.4,    6.8,    6.5,    6.3,    3.1,    2.8,    4.9,    7.4,  999.0,    6.3,    7.7,    7.8,  999.0,  999.0,  999.0,  999.0,  999.0,  999.0,   11.7,  999.0,  999.0,   16.6,  999.0,  999.0,  999.0,  999.0,  999.0,   15.9,  999.0,  999.0,  999.0,  999.0,  999.0,  999.0,  999.0,  999.0,  999.0,  999.0,  999.0,  999.0,  999.0,  999.0,   35.1,   34.6,   36.2,   36.6,   38.0,   38.2,  999.0,  999.0,  999.0,  999.0,  999.0,  999.0,  999.0,  999.0,  999.0,  999.0,  999.0,  999.0,  999.0,  999.0,  999.0,  999.0,  999.0,  999.0,  999.0,  999.0,  999.0,  999.0,  999.0
2012/03/23 09:00,  999.0,   -0.3,   -0.1,   -0.1,   -0.3,    0.3,   -0.0,    0.5,    2.0,    4.5,    7.7,    7.6,    7.7,    5.0,    2.5,    3.5,    5.2,  999.0,  999.0,    6.5,    7.6,  999.0,  999.0,  999.0,  999.0,    9.1,   10.4,   11.7,   13.7,  999.0,  999.0,  999.0,  999.0,  999.0,  999.0,  999.0,  999.0,  999.0,  999.0,  999.0,  999.0,  999.0,  999.0,   29.2,   30.3,   31.8,   33.6,   34.7,   36.2,   37.3,   37.3,   35.5,   36.7,   37.9,   39.4,  999.0,  999.0,  999.0,  999.0,  999.0,  999.0,  999.0,  999.0,  999.0,  999.0,  999.0,  999.0,  999.0,  999.0,  999.0,  999.0,  999.0,  999.0,  999.0,  999.0,  999.0,  999.0,  999.0,  999.0,  999.0
2012/03/23 09:10,  999.0,    0.1,    0.4,    0.7,    0.1,   -0.6,   -0.0,    0.1,    0.6,    3.0,    6.0,    7.0,    8.2,    7.0,    4.6,    3.6,    4.5,    5.4,  999.0,    6.0,    7.5,  999.0,  999.0,  999.0,  999.0,   10.3,   12.7,   12.3,  999.0,  999.0,  999.0,  999.0,  999.0,  999.0,  999.0,  999.0,  999.0,  999.0,   22.3,   22.0,   23.0,   26.3,   28.2,   30.7,   32.1,   33.3,   35.3,   36.0,   36.1,   37.1,   37.3,   37.3,   38.2,  999.0,  999.0,  999.0,  999.0,  999.0,  999.0,  999.0,  999.0,  999.0,  999.0,  999.0,  999.0,  999.0,  999.0,  999.0,  999.0,  999.0,  999.0,  999.0,  999.0,  999.0,  999.0,  999.0,  999.0,  999.0,  999.0,  999.0
2012/03/23 09:20,  999.0,   -0.1,   -0.5,    0.8,  999.0,    0.8,    0.3,   -0.2,    0.8,    1.5,    3.8,    5.3,    8.0,    7.6,    5.8,    3.4,    4.4,    4.2,    0.3,    6.5,    7.6,  999.0,  999.0,  999.0,  999.0,    8.4,  999.0,  999.0,  999.0,  999.0,  999.0,  999.0,  999.0,   15.3,   15.8,   16.1,   16.8,   18.6,   21.4,   21.9,   22.5,   24.8,   27.8,   30.6,   31.7,   32.7,   34.8,   36.2,   35.8,   36.9,   36.8,   35.8,  999.0,  999.0,  999.0,  999.0,  999.0,  999.0,  999.0,  999.0,  999.0,  999.0,  999.0,  999.0,  999.0,  999.0,  999.0,  999.0,  999.0,  999.0,  999.0,  999.0,  999.0,  999.0,  999.0,  999.0,  999.0,  999.0,  999.0,  999.0
2012/03/23 09:30,  999.0,   -0.9,    0.3,    0.4,  999.0,    1.5,    0.3,    0.4,    0.9,   -0.7,    2.0,    3.7,    4.9,    5.0,    5.7,    3.7,    2.8,    1.3,    1.9,    3.2,    2.6,  999.0,  999.0,    0.9,    0.3,  999.0,  999.0,  999.0,  999.0,  999.0,  999.0,  999.0,  999.0,  999.0,   14.8,   14.9,   16.1,   18.0,   20.6,   21.3,   22.3,   25.7,   29.4,   31.7,   32.2,   33.6,   35.6,  999.0,  999.0,  999.0,  999.0,  999.0,  999.0,  999.0,  999.0,  999.0,  999.0,  999.0,  999.0,  999.0,  999.0,  999.0,  999.0,  999.0,  999.0,  999.0,  999.0,  999.0,  999.0,  999.0,  999.0,  999.0,  999.0,  999.0,  999.0,  999.0,  999.0,  999.0,  999.0,  999.0
2012/03/23 09:40,  999.0,    1.5,    1.3,    1.0,    1.4,    1.5,    1.0,    0.5,    0.7,  999.0,   -0.0,   -1.2,    0.8,    1.2,    1.6,    1.1,    0.9,   -0.1,   -0.1,   -0.8,   -0.2,    0.1,  999.0,    1.3,    0.3,   -0.0,    1.2,    2.5,    2.1,  999.0,  999.0,  999.0,  999.0,   12.9,   13.4,   14.5,   15.8,   17.5,   19.4,   20.9,   22.8,   25.6,   28.6,   30.2,  999.0,  999.0,  999.0,  999.0,  999.0,  999.0,  999.0,  999.0,  999.0,  999.0,  999.0,  999.0,  999.0,  999.0,  999.0,  999.0,  999.0,  999.0,  999.0,  999.0,  999.0,  999.0,  999.0,  999.0,  999.0,  999.0,  999.0,  999.0,  999.0,  999.0,  999.0,  999.0,  999.0,  999.0,  999.0,  999.0
2012/03/23 09:50,  999.0,   -0.2,    0.5,    1.5,    0.6,    0.2,    0.2,    0.5,   -0.2,   -0.4,   -0.5,   -0.6,   -0.8,    0.1,    0.7,    1.0,    1.2,    0.8,    0.3,    0.7,    1.0,    2.8,    2.4,    0.4,    0.8,  999.0,  999.0,    0.9,   -0.0,    0.3,  999.0,  999.0,  999.0,  999.0,  999.0,  999.0,  999.0,  999.0,  999.0,  999.0,  999.0,  999.0,  999.0,  999.0,  999.0,  999.0,  999.0,  999.0,  999.0,  999.0,  999.0,  999.0,  999.0,  999.0,  999.0,  999.0,    0.2,    0.3,   -0.1,    0.2,  999.0,  999.0,  999.0,  999.0,  999.0,  999.0,  999.0,  999.0,  999.0,  999.0,  999.0,  999.0,  999.0,  999.0,  999.0,  999.0,  999.0,  999.0,  999.0,  999.0
2012/03/23 10:00,  999.0,    0.8,    1.1,    0.9,    0.5,    0.5,    0.7,    0.1,    0.4,    0.1,   -0.1,    0.1,    0.1,   -0.3,    0.0,    0.2,    0.3,    0.3,    0.6,    0.4,    0.2,  999.0,    1.1,   -0.0,    0.1,  999.0,    1.2,    0.4,    0.1,   -0.0,   -0.1,   -0.5,  999.0,  999.0,  999.0,  999.0,  999.0,  999.0,  999.0,  999.0,  999.0,  999.0,  999.0,  999.0,  999.0,  999.0,  999.0,  999.0,  999.0,  999.0,   -0.1,   -0.1,    0.6,   -0.0,   -0.2,    0.0,    0.0,    0.2,    0.2,  999.0,    0.2,  999.0,  999.0,    0.3,   -0.1,  999.0,  999.0,  999.0,  999.0,  999.0,  999.0,  999.0,  999.0,  999.0,  999.0,  999.0,  999.0,  999.0,  999.0,  999.0
2012/03/23 10:10,  999.0,    0.3,    0.8,    0.4,  999.0,    1.4,  999.0,  999.0,    0.7,    0.6,    0.4,    2.6,    3.9,   -0.3,  999.0,    0.2,    0.1,    0.1,    0.2,    0.3,    1.7,  999.0,    0.9,    1.2,    1.3,    2.7,    0.8,    0.3,    0.1,  999.0,  999.0,  999.0,  999.0,   14.5,   14.7,   16.2,   19.2,   21.9,   23.4,   25.9,   28.5,   31.5,   33.2,  999.0,  999.0,  999.0,  999.0,  999.0,  999.0,  999.0,  999.0,  999.0,  999.0,  999.0,  999.0,  999.0,   -0.2,    0.1,  999.0,   -0.4,  999.0,  999.0,    0.1,  999.0,  999.0,  999.0,  999.0,  999.0,  999.0,  999.0,  999.0,  999.0,  999.0,  999.0,  999.0,  999.0,  999.0,  999.0,  999.0,  999.0
2012/03/23 10:20,  999.0,    0.1,   -0.1,    0.2,    0.5,    0.7,    0.2,   -0.0,    0.0,   -0.1,  999.0,  999.0,   -0.4,  999.0,  999.0,   -0.0,    0.0,    0.0,    0.0,    0.5,    0.8,    0.7,    1.8,    2.3,    1.9,  999.0,    3.0,  999.0,  999.0,   11.5,   12.0,   12.1,   12.8,   12.5,   14.7,  999.0,  999.0,  999.0,   12.0,  999.0,  999.0,  999.0,  999.0,  999.0,    0.2,    0.4,    0.4,    0.2,    0.2,   -0.0,    0.1,    0.2,    0.2,    0.4,   -0.1,   -0.1,   -0.1,   -0.1,    0.1,    0.1,    0.0,  999.0,  999.0,    0.2,   -0.1,  999.0,   -0.1,  999.0,  999.0,  999.0,  999.0,  999.0,  999.0,  999.0,  999.0,  999.0,  999.0,  999.0,  999.0,  999.0
2012/03/23 10:30,  999.0,    0.2,   -0.2,    0.5,    1.6,    0.7,   -0.0,   -0.0,   -0.1,   -0.1,   -0.3,   -1.3,   -1.2,   -1.4,   -0.9,   -1.2,   -0.4,   -0.1,   -0.0,    0.1,    0.2,    0.6,    1.9,    2.1,    2.8,  999.0,  999.0,  999.0,  999.0,  999.0,  999.0,   11.1,   11.8,   11.5,   13.7,  999.0,  999.0,  999.0,   12.1,   14.1,  999.0,  999.0,  999.0,  999.0,    0.8,    0.4,    0.4,    0.5,    0.9,  999.0,    1.4,    1.6,    1.6,    0.5,    0.0,    0.2,    0.1,   -0.1,    0.1,    0.0,   -0.2,   -0.3,    0.3,  999.0,   -0.3,    0.2,    0.0,   -0.1,  999.0,  999.0,  999.0,  999.0,  999.0,  999.0,  999.0,  999.0,  999.0,  999.0,  999.0,  999.0
2012/03/23 10:40,  999.0,   -0.3,    0.2,    0.2,    1.3,    0.6,   -0.2,    0.0,    0.1,   -1.5,   -2.1,   -1.4,   -1.3,   -1.0,   -1.0,   -0.9,   -0.5,   -0.0,    0.0,    0.0,    0.1,    0.8,    1.2,    0.5,    0.7,    1.2,    1.1,    0.8,    0.2,    1.2,  999.0,  999.0,  999.0,  999.0,   10.6,   13.8,   17.4,  999.0,   21.8,   24.8,   23.6,   25.0,   30.0,   27.6,  999.0,  999.0,  999.0,  999.0,  999.0,  999.0,  999.0,  999.0,    0.8,   -0.1,   -0.2,    0.0,   -0.2,    0.1,    0.0,    0.1,    0.1,    0.1,    0.5,  999.0,    0.2,  999.0,    0.2,   -0.2,  999.0,  999.0,  999.0,  999.0,  999.0,  999.0,  999.0,  999.0,  999.0,  999.0,  999.0,  999.0
2012/03/23 10:50,  999.0,   -0.5,   -0.0,    0.3,   -0.2,   -0.2,   -0.1,    0.1,   -0.1,   -0.1,   -0.2,   -0.4,   -0.4,   -0.2,   -0.2,   -0.3,   -0.0,    0.2,    0.1,    0.2,    0.4,    0.5,    0.8,    1.0,    1.0,    1.0,    1.1,    0.2,    0.6,    0.9,  999.0,  999.0,  999.0,   10.6,   10.3,   15.2,   18.5,   21.0,   22.8,   25.2,  999.0,  999.0,  999.0,  999.0,  999.0,  999.0,  999.0,  999.0,  999.0,  999.0,  999.0,  999.0,    0.3,    0.1,    0.3,    0.2,    0.0,   -0.2,   -0.1,   -0.1,    0.0,   -0.2,   -0.0,    0.1,  999.0,   -0.0,  999.0,  999.0,   -0.0,  999.0,  999.0,  999.0,  999.0,  999.0,  999.0,  999.0,  999.0,  999.0,  999.0,  999.0
2012/03/23 11:00,  999.0,    0.3,   -0.0,   -0.1,    0.1,   -0.1,   -0.2,   -0.2,   -0.3,   -0.3,   -0.2,    0.2,   -0.5,   -2.1,   -1.3,    0.1,   -0.1,   -0.0,   -0.6,    0.0,    2.0,    0.2,    2.9,    2.3,    2.2,    2.2,    2.0,    4.0,  999.0,  999.0,    7.2,    7.5,    8.6,    9.8,   12.2,   16.5,  999.0,  999.0,  999.0,  999.0,  999.0,  999.0,  999.0,  999.0,    0.2,  999.0,  999.0,    0.3,  999.0,  999.0,   -0.3,  999.0,   -0.7,   -0.1,    0.1,   -0.2,    0.0,   -0.3,   -0.6,   -0.4,  999.0,   -0.1,   -0.3,    0.0,    0.1,   -0.2,  999.0,  999.0,  999.0,  999.0,  999.0,  999.0,  999.0,  999.0,  999.0,  999.0,  999.0,  999.0,  999.0,  999.0
2012/03/23 11:10,  999.0,   -0.2,   -0.4,   -0.1,   -0.1,   -0.1,    0.1,    0.0,   -0.2,   -0.4,   -0.8,   -0.8,   -1.0,   -1.6,   -0.5,   -0.1,    0.2,    0.3,   -0.0,    0.7,    4.9,  999.0,  999.0,    1.8,    1.6,    7.1,    5.9,    5.7,    7.7,    7.6,    7.1,    7.2,    7.6,    8.8,  999.0,  999.0,  999.0,  999.0,  999.0,   12.2,  999.0,  999.0,  999.0,  999.0,  999.0,  999.0,   -0.3,  999.0,  999.0,   -0.1,  999.0,  999.0,   -0.2,   -0.2,   -0.2,    0.1,   -0.5,   -0.1,   -0.1,   -0.3,  999.0,    0.3,  999.0,   -0.2,    0.2,  999.0,  999.0,  999.0,  999.0,  999.0,  999.0,  999.0,  999.0,  999.0,  999.0,  999.0,  999.0,  999.0,  999.0,  999.0
2012/03/23 11:20,  999.0,    0.1,    0.2,   -0.3,   -0.2,   -0.1,    0.0,    0.1,   -0.4,  999.0,    3.2,    4.2,    6.5,    7.0,    7.3,    7.2,    6.4,  999.0,  999.0,    6.9,    6.9,    6.7,    6.0,    5.4,    5.2,    5.7,    5.6,    4.6,    5.6,    6.1,    6.9,    7.4,    7.8,   11.3,   15.8,  999.0,  999.0,  999.0,  999.0,  999.0,  999.0,  999.0,  999.0,  999.0,   -0.3,   -0.2,    0.0,    0.1,    0.2,    0.1,  999.0,  999.0,   -0.1,   -0.0,   -0.2,   -0.0,   -0.0,   -0.1,   -0.1,   -0.1,   -0.2,   -0.2,   -0.1,    0.2,    0.2,    0.0,  999.0,  999.0,  999.0,  999.0,  999.0,  999.0,  999.0,  999.0,  999.0,  999.0,  999.0,  999.0,  999.0,  999.0
2012/03/23 11:30,  999.0,   -0.1,   -0.5,   -0.0,   -0.2,   -0.1,    0.0,  999.0,  999.0,    3.1,    5.2,    5.5,    6.3,    6.5,    6.5,    6.0,    5.0,    3.5,  999.0,  999.0,    3.3,    7.4,    6.7,    6.2,    7.1,    7.7,    6.0,    5.1,    7.3,    7.3,    6.8,    6.8,    7.0,    9.3,   14.2,  999.0,  999.0,  999.0,  999.0,  999.0,  999.0,  999.0,  999.0,  999.0,  999.0,   -0.0,   -0.2,    0.0,  999.0,    0.1,    0.6,  999.0,  999.0,   -0.1,   -0.0,    0.1,   -0.0,    0.5,    0.3,   -0.5,  999.0,    0.1,    0.2,  999.0,    0.0,  999.0,  999.0,  999.0,  999.0,  999.0,  999.0,  999.0,  999.0,  999.0,  999.0,  999.0,  999.0,  999.0,  999.0,  999.0
2012/03/23 11:40,  999.0,    0.0,   -0.3,   -0.1,    0.2,   -0.1,   -0.3,   -0.2,  999.0,    5.1,    4.4,    5.0,    5.2,    5.3,    5.6,    5.5,    7.1,    6.8,  999.0,  999.0,    6.7,    7.6,    7.9,    7.8,    8.3,    8.3,    8.4,    7.6,    8.0,  999.0,    4.7,  999.0,  999.0,  999.0,  999.0,  999.0,  999.0,  999.0,  999.0,  999.0,   -0.7,   -0.4,  999.0,   -0.2,   -0.1,  999.0,  999.0,    0.2,  999.0,   -0.2,   -0.3,    0.2,   -0.1,   -0.1,    0.0,    0.2,   -0.2,    0.0,   -0.5,  999.0,  999.0,    0.1,  999.0,  999.0,  999.0,  999.0,  999.0,  999.0,  999.0,  999.0,  999.0,  999.0,  999.0,  999.0,  999.0,  999.0,  999.0,  999.0,  999.0,  999.0
2012/03/23 11:50,  999.0,    0.5,    0.1,   -0.0,   -0.0,   -0.3,   -0.5,    0.0,  999.0,    3.8,    2.3,    3.2,    4.5,    4.5,    4.1,    2.8,  999.0,  999.0,  999.0,  999.0,  999.0,  999.0,  999.0,  999.0,  999.0,  999.0,    7.1,    7.2,    5.6,  999.0,  999.0,  999.0,  999.0,  999.0,  999.0,  999.0,  999.0,  999.0,  999.0,  999.0,  999.0,   -2.9,  999.0,  999.0,   -0.3,  999.0,  999.0,  999.0,  999.0,  999.0,  999.0,  999.0,  999.0,  999.0,    0.4,  999.0,  999.0,  999.0,  999.0,  999.0,  999.0,  999.0,  999.0,  999.0,  999.0,  999.0,  999.0,  999.0,  999.0,  999.0,  999.0,  999.0,  999.0,  999.0,  999.0,  999.0,  999.0,  999.0,  999.0,  999.0
2012/03/23 12:00,  999.0,    0.3,   -0.0,   -0.1,   -0.4,   -0.6,   -1.7,   -1.7,  999.0,   -0.2,    0.7,    0.7,    3.2,    3.0,    2.5,    1.6,    4.4,    6.8,    6.6,    5.9,    5.8,    5.1,    5.0,    5.5,    5.9,  999.0,  999.0,  999.0,  999.0,  999.0,  999.0,  999.0,  999.0,  999.0,  999.0,  999.0,  999.0,  999.0,  999.0,  999.0,  999.0,  999.0,  999.0,  999.0,  999.0,  999.0,  999.0,  999.0,  999.0,  999.0,  999.0,  999.0,  999.0,  999.0,  999.0,  999.0,  999.0,  999.0,  999.0,  999.0,  999.0,  999.0,  999.0,  999.0,  999.0,  999.0,  999.0,  999.0,  999.0,  999.0,  999.0,  999.0,  999.0,  999.0,  999.0,  999.0,  999.0,  999.0,  999.0,  999.0
2012/03/23 12:10,  999.0,    0.3,    0.2,   -0.1,   -0.4,   -0.9,   -0.9,   -0.8,  999.0,  999.0,    0.9,    3.0,    3.9,    4.2,    3.2,    1.8,    3.2,    5.6,    5.6,    5.7,    6.1,    4.9,    5.1,  999.0,  999.0,  999.0,  999.0,  999.0,  999.0,  999.0,  999.0,  999.0,  999.0,  999.0,  999.0,  999.0,  999.0,  999.0,  999.0,  999.0,  999.0,  999.0,  999.0,  999.0,  999.0,  999.0,  999.0,  999.0,  999.0,  999.0,  999.0,  999.0,  999.0,  999.0,  999.0,  999.0,  999.0,  999.0,  999.0,  999.0,  999.0,  999.0,  999.0,  999.0,  999.0,  999.0,  999.0,  999.0,  999.0,  999.0,  999.0,  999.0,  999.0,  999.0,  999.0,  999.0,  999.0,  999.0,  999.0,  999.0
2012/03/23 12:20,  999.0,  999.0,    0.4,   -0.1,   -0.1,   -0.4,   -0.0,    0.1,   -0.7,  999.0,  999.0,    2.6,    3.9,    3.5,    3.2,    2.6,    3.1,    5.7,  999.0,  999.0,  999.0,    8.1,    3.5,    3.7,    3.9,    3.3,    2.5,    2.6,    5.2,    9.3,   12.0,   15.9,   19.4,   22.5,   24.4,   25.2,   25.4,   25.9,   27.3,   27.6,   28.1,   30.0,   31.4,   32.7,   33.5,   33.3,   33.2,   32.7,   32.0,   31.8,   33.1,   34.1,   35.5,   35.3,  999.0,  999.0,  999.0,  999.0,  999.0,  999.0,  999.0,  999.0,  999.0,  999.0,  999.0,  999.0,  999.0,  999.0,  999.0,  999.0,  999.0,  999.0,  999.0,  999.0,  999.0,  999.0,  999.0,  999.0,  999.0,  999.0
2012/03/23 12:30,  999.0,    0.3,    0.1,   -0.4,   -0.3,    0.3,   -0.2,    0.3,   -0.6,   -0.2,  999.0,  999.0,  999.0,    2.1,    1.1,    0.3,    2.4,    5.7,    8.4,    5.5,    5.3,    5.0,    4.5,    3.9,    3.4,    2.7,    2.5,    3.1,    5.6,    8.7,   12.1,   15.5,   19.3,   22.6,   24.7,   25.9,   25.7,   26.1,   27.7,   28.5,   28.9,   30.8,   31.9,   32.8,   33.6,   34.0,   34.0,   33.2,   32.0,   32.6,   33.2,   33.8,  999.0,  999.0,  999.0,  999.0,  999.0,  999.0,  999.0,  999.0,  999.0,  999.0,  999.0,  999.0,  999.0,  999.0,  999.0,  999.0,  999.0,  999.0,  999.0,  999.0,  999.0,  999.0,  999.0,  999.0,  999.0,  999.0,  999.0,  999.0
2012/03/23 12:40,  999.0,    0.2,    1.0,   -0.3,   -0.0,   -0.0,   -1.4,  999.0,  999.0,    4.3,    3.0,    2.9,    3.0,    2.0,   -0.3,  999.0,  999.0,  999.0,    4.8,  999.0,    4.4,    4.1,    4.1,    3.9,    3.5,    3.1,    2.3,    2.7,  999.0,   10.1,   14.6,   18.0,   20.9,   23.4,   25.6,   25.9,   26.6,   26.8,   28.1,   29.2,   29.2,   30.5,   32.0,   33.1,  999.0,  999.0,  999.0,  999.0,  999.0,  999.0,  999.0,  999.0,  999.0,  999.0,  999.0,    0.1,   -0.4,   -0.2,    0.0,   -0.2,    0.2,    0.1,   -0.4,   -0.1,  999.0,    0.3,  999.0,  999.0,  999.0,  999.0,  999.0,  999.0,   -0.2,  999.0,  999.0,  999.0,  999.0,  999.0,  999.0,  999.0
2012/03/23 12:50,  999.0,    0.2,    0.2,   -0.4,   -0.2,   -0.1,   -0.0,    2.3,    2.6,    2.9,    1.5,    3.5,    2.3,    1.5,    1.8,    1.4,    2.2,    5.3,    5.9,    5.4,    5.1,    4.7,    4.0,    3.6,    3.0,    2.6,    2.9,    3.8,    6.3,   11.9,   15.8,   19.0,   21.3,   22.8,   24.9,   26.5,   26.8,   27.7,   28.8,   29.8,   29.2,   29.4,   30.8,   31.0,   32.7,   33.8,   33.3,   33.6,   32.5,   31.9,  999.0,  999.0,  999.0,  999.0,  999.0,  999.0,  999.0,    0.2,   -0.1,    0.2,    0.2,   -0.1,   -0.0,    0.1,    0.3,    0.0,  999.0,  999.0,  999.0,  999.0,  999.0,  999.0,  999.0,  999.0,  999.0,  999.0,  999.0,  999.0,  999.0,  999.0
2012/03/23 13:00,  999.0,    0.3,    1.3,    0.5,  999.0,  999.0,  999.0,    1.6,    1.2,    1.1,    1.6,    2.5,    2.6,    3.4,    2.7,    1.6,    1.2,    2.9,    4.4,    4.5,    3.8,    3.4,    3.0,    2.3,    1.8,    2.0,    2.2,    4.6,    8.6,   12.4,   16.4,   19.6,   21.3,   22.5,   24.3,   25.6,   26.8,   28.5,   29.0,   29.5,   30.2,   30.4,   30.9,   32.2,   33.2,   33.6,   33.7,   33.8,   35.0,   35.7,  999.0,  999.0,  999.0,  999.0,  999.0,  999.0,  999.0,    0.2,    0.1,    0.1,   -0.0,   -0.0,    0.0,  999.0,   -0.3,   -0.2,  999.0,  999.0,  999.0,  999.0,  999.0,  999.0,  999.0,  999.0,  999.0,  999.0,  999.0,  999.0,  999.0,  999.0
2012/03/23 13:10,  999.0,  999.0,    1.2,    2.2,  999.0,    4.6,    1.7,    1.1,    1.6,    2.0,    2.3,    3.0,    3.9,    4.3,    3.7,    3.0,    1.9,    1.5,    3.9,    4.5,    4.1,    3.5,    2.7,    1.7,    1.7,    1.9,    3.8,  999.0,  999.0,   14.0,   18.2,   20.7,   21.7,   22.6,   23.7,   24.8,   27.2,   28.2,   28.5,   28.7,   29.3,   30.7,   31.2,   31.4,   31.9,   32.6,   32.7,   32.8,   33.9,   33.8,   32.4,  999.0,  999.0,  999.0,  999.0,  999.0,    0.0,  999.0,   -0.2,   -0.1,    0.1,   -0.1,    0.1,    0.1,    0.0,    0.1,  999.0,  999.0,  999.0,  999.0,  999.0,  999.0,   -0.1,  999.0,  999.0,  999.0,  999.0,  999.0,  999.0,  999.0
2012/03/23 13:20,  999.0,  999.0,   -2.2,  999.0,  999.0,    5.1,  999.0,  999.0,    1.1,    1.7,    2.1,    3.0,    4.0,    4.8,    4.2,    3.3,    2.2,    1.3,    2.7,    4.1,    3.8,    3.1,    2.3,    2.0,    2.1,    4.6,    8.0,   11.2,   15.2,   18.5,   21.0,   21.5,   21.6,   22.2,   23.5,   25.2,   27.0,   27.4,   28.1,   29.1,   30.1,   31.1,   30.5,   31.0,   32.1,   32.7,   32.8,   33.8,   34.1,   32.1,   31.0,   31.5,   33.3,  999.0,  999.0,  999.0,  999.0,  999.0,  999.0,    0.0,  999.0,    0.1,  999.0,    0.1,   -0.4,    0.2,  999.0,  999.0,  999.0,  999.0,  999.0,  999.0,  999.0,  999.0,  999.0,  999.0,  999.0,  999.0,  999.0,  999.0
2012/03/23 13:30,  999.0,  999.0,  999.0,  999.0,    7.7,    9.8,    2.9,   -1.5,    0.9,    1.5,    1.7,    2.1,    3.3,    4.5,    4.8,    4.3,    3.3,    2.2,    3.6,    4.1,    3.6,    2.2,    1.3,    1.1,    2.3,    5.1,    9.7,   13.7,   16.0,   18.3,   20.0,   20.5,   21.1,   22.4,   24.4,   26.0,   27.3,   28.0,   27.9,   28.8,   29.4,   30.0,   30.1,   30.6,   32.2,   33.1,   33.3,   32.3,   31.3,   30.5,   30.6,   32.2,  999.0,  999.0,  999.0,   -0.1,  999.0,  999.0,  999.0,   -0.3,  999.0,    0.3,    0.1,    0.1,   -0.0,  999.0,    0.2,  999.0,  999.0,  999.0,  999.0,  999.0,  999.0,  999.0,  999.0,  999.0,  999.0,  999.0,  999.0,  999.0
2012/03/23 13:40,  999.0,  999.0,  999.0,  999.0,    9.5,    6.7,  999.0,    2.5,    1.2,    1.7,    2.3,    2.1,    3.4,    5.2,    6.9,    6.8,    6.3,    5.3,    4.8,    4.0,    2.8,    1.8,    0.7,    1.1,    1.9,    4.9,    8.6,   12.9,   16.1,   17.8,   18.7,   19.9,   21.7,   23.9,   25.1,   25.3,   25.6,   26.7,   27.5,   28.6,   29.5,   30.0,   30.5,   32.0,   33.9,   33.9,   32.6,   32.2,   31.0,  999.0,  999.0,  999.0,  999.0,  999.0,  999.0,   -0.0,   -0.2,    0.0,   -0.1,    0.0,   -0.2,    0.0,    0.0,    0.0,   -0.1,    0.4,    0.3,  999.0,  999.0,  999.0,  999.0,  999.0,  999.0,  999.0,  999.0,  999.0,  999.0,  999.0,  999.0,  999.0
2012/03/23 13:50,  999.0,   -0.0,   -0.0,    0.5,  999.0,  999.0,  999.0,    3.2,    1.3,    1.9,    0.9,    0.5,    0.3,    1.7,    2.5,    2.4,    4.0,    3.7,    3.4,    2.3,    1.1,    0.3,   -0.2,   -0.2,    2.6,    6.3,    9.4,   12.6,   16.1,   16.7,   18.0,   20.5,   22.9,   24.1,   24.2,   25.1,   25.9,   27.8,   29.5,   30.4,   30.5,   31.2,   32.4,   32.9,   33.6,   33.8,   32.1,   30.7,  999.0,  999.0,  999.0,  999.0,  999.0,  999.0,  999.0,  999.0,  999.0,  999.0,   -0.1,    0.0,    0.1,   -0.4,   -0.1,   -0.2,    0.1,  999.0,   -0.2,    0.1,  999.0,  999.0,  999.0,  999.0,  999.0,  999.0,  999.0,  999.0,  999.0,  999.0,  999.0,  999.0
2012/03/23 14:00,  999.0,  999.0,  999.0,  999.0,  999.0,  999.0,  999.0,  999.0,    0.7,    1.4,    1.1,    0.5,    1.3,    2.4,    3.6,    3.6,    4.7,    3.9,    3.2,    2.3,    1.3,    1.1,    0.5,    1.2,    5.2,    8.5,   11.1,   14.1,   15.7,   17.0,   19.7,   21.5,   23.2,   23.6,   24.6,   25.4,   26.9,   28.5,   30.3,   30.7,   31.8,   32.5,   32.6,   33.1,   33.7,   34.5,   32.8,   30.2,   30.7,   31.9,  999.0,  999.0,  999.0,  999.0,  999.0,  999.0,   -0.2,    0.2,   -0.2,   -0.5,   -0.5,   -0.3,   -0.1,   -0.0,   -0.3,   -0.2,   -0.1,   -0.2,   -0.1,  999.0,    0.0,  999.0,  999.0,  999.0,  999.0,  999.0,  999.0,  999.0,  999.0,  999.0
2012/03/23 14:10,  999.0,  999.0,   -7.7,  999.0,   -0.4,    1.4,  999.0,  999.0,  999.0,    1.5,    1.5,    1.3,    1.6,    2.4,    2.8,    3.8,    4.6,    3.7,    3.1,    2.4,    1.4,    0.8,    0.5,    2.1,    6.1,    8.9,   11.5,   13.9,   15.5,   16.9,   19.4,   21.8,   23.4,   24.3,   24.6,   25.2,   26.8,   27.9,   30.6,   32.8,   32.9,   32.7,   33.2,   34.4,   35.3,   34.9,   33.0,   32.1,   32.1,  999.0,  999.0,  999.0,  999.0,  999.0,  999.0,  999.0,   -0.0,    0.2,    0.0,    0.1,    0.2,    0.0,    0.1,   -0.0,    0.1,   -0.0,   -0.0,   -0.0,  999.0,  999.0,    0.2,   -0.0,   -0.0,    0.1,  999.0,  999.0,  999.0,  999.0,  999.0,  999.0
2012/03/23 14:20,  999.0,  999.0,  999.0,  999.0,    0.5,    3.4,    1.5,    0.7,    1.9,    0.3,    0.5,    1.1,    1.8,    1.1,    1.7,    3.6,    4.2,    3.2,    2.5,    1.5,    0.7,    0.4,    0.6,    3.4,    7.3,   10.6,   12.1,   13.2,   15.7,   18.3,   19.9,   21.8,   23.3,   23.1,   22.6,   23.3,   23.8,   25.4,   28.7,   33.0,   33.8,   34.6,   34.7,   34.5,   35.2,   35.4,   34.0,   34.2,  999.0,  999.0,  999.0,  999.0,  999.0,  999.0,  999.0,   -0.0,    0.2,   -0.1,   -0.1,    0.2,    0.0,    0.0,   -0.1,    0.0,    0.2,    0.0,   -0.1,   -0.1,    0.2,    0.0,    0.1,   -0.1,   -0.1,   -0.1,  999.0,  999.0,  999.0,  999.0,  999.0,  999.0
2012/03/23 14:30,  999.0,  999.0,  999.0,   -0.1,   -0.3,   -0.7,  999.0,   -0.6,   -0.2,   -0.2,   -0.6,   -0.1,    0.3,    1.4,    2.0,    3.3,    3.6,    2.8,    2.2,    0.8,    0.2,   -0.0,    2.0,    6.3,    9.3,   11.8,   13.1,   13.9,   15.4,   17.6,   19.5,   20.7,   21.1,   21.8,   21.8,   21.5,   22.6,   25.2,   27.7,   31.1,   33.3,   33.1,   34.1,   33.4,   33.2,   33.1,   32.7,   31.8,   30.6,   31.7,   33.4,   35.0,   31.5,   29.8,  999.0,  999.0,  999.0,  999.0,  999.0,   -0.3,   -0.4,   -0.0,   -0.0,    0.2,    0.1,    0.1,   -0.1,    0.2,   -0.2,    0.0,    0.1,   -0.1,  999.0,  999.0,  999.0,  999.0,  999.0,  999.0,  999.0,  999.0
2012/03/23 14:40,  999.0,  -10.1,  -10.2,   -9.6,   -6.8,  999.0,  999.0,  999.0,   -5.2,   -3.3,   -1.1,   -0.0,    0.8,    1.0,    1.6,    2.5,    2.6,    2.0,    1.7,    0.3,   -0.4,    1.5,    4.3,    6.9,    9.9,   12.8,   14.7,   14.8,   15.6,   17.3,   17.8,   18.1,   18.8,   20.6,   21.6,   21.0,   22.2,   25.0,   28.4,   32.5,   32.8,   32.3,   32.1,   31.3,   30.8,   31.0,   30.8,   30.0,   30.3,   31.1,   32.1,   33.8,   35.0,   36.6,   37.9,   38.8,   39.6,  999.0,  999.0,  999.0,  999.0,  999.0,   -0.1,   -0.0,    0.0,    0.2,  999.0,   -0.4,    0.0,    0.1,    0.1,  999.0,   -0.2,   -0.2,  999.0,  999.0,  999.0,  999.0,  999.0,  999.0
2012/03/23 14:50,  999.0,  999.0,    0.6,    1.9,  999.0,  999.0,  999.0,  999.0,  999.0,   -0.2,   -0.7,   -0.7,    0.2,    0.6,    2.0,    3.1,    2.8,    1.7,    0.5,   -0.0,   -0.9,    0.7,    3.9,    6.4,    8.6,   10.8,   13.6,   15.1,   16.0,   16.7,   17.2,   17.9,   19.1,   20.2,   20.4,   21.2,   23.6,   26.2,   30.5,   32.3,   32.3,   33.0,   33.0,   32.5,   32.1,   31.5,   30.4,   29.7,   31.0,   33.6,   32.9,   33.8,  999.0,  999.0,   18.0,   18.8,   19.7,  999.0,   -0.5,   -0.0,   -0.2,    0.0,    0.2,   -0.0,   -0.1,    0.0,  999.0,   -0.3,    0.0,    0.0,  999.0,   -0.2,   -0.4,    0.1,  999.0,  999.0,  999.0,  999.0,  999.0,  999.0
2012/03/23 15:00,  999.0,   -1.6,   -2.0,    1.8,  999.0,  999.0,  999.0,  999.0,  999.0,   -4.0,   -1.4,   -0.3,    0.0,    2.0,    2.8,    1.7,    0.3,    0.0,   -0.1,    0.3,    1.2,    2.0,    3.4,    6.2,    8.3,    9.2,   11.6,   13.2,   15.3,   16.5,   17.9,   19.0,   19.9,   20.5,   20.0,   21.7,   24.4,   27.2,   30.6,   31.7,   31.6,   32.4,   33.1,   33.0,   32.3,   31.9,   31.2,   31.1,   31.6,  999.0,  999.0,  999.0,  999.0,  999.0,   -0.1,   -0.2,    0.1,    0.1,    0.2,    0.3,    0.0,   -0.2,   -0.1,   -0.0,   -0.0,    0.1,   -0.1,    0.1,   -0.1,   -0.1,  999.0,  999.0,  999.0,  999.0,  999.0,  999.0,  999.0,  999.0,  999.0,  999.0
2012/03/23 15:10,  999.0,   -1.6,   -1.4,   -0.8,   -1.2,   -3.1,  999.0,  999.0,  999.0,   -2.3,   -1.0,    0.1,    1.2,    1.5,    0.8,    1.0,    1.8,    2.9,    3.4,    3.7,    3.6,    4.1,    4.8,    5.8,    6.5,    8.1,    9.3,   12.1,   14.5,   15.8,   17.5,   19.1,   19.9,   19.7,   19.6,   21.3,   24.7,   27.7,   31.2,   33.2,   33.1,   32.8,   32.4,   32.3,   33.3,   32.6,   31.4,   31.0,   31.2,  999.0,  999.0,  999.0,  999.0,  999.0,    0.4,    0.0,    0.0,   -0.2,    0.0,    0.1,    0.1,    0.2,   -0.5,   -0.0,   -0.1,   -0.1,    0.1,  999.0,  999.0,  999.0,  999.0,  999.0,  999.0,  999.0,  999.0,  999.0,  999.0,  999.0,  999.0,  999.0
2012/03/23 15:20,  999.0,   -3.8,   -2.8,   -1.6,   -0.8,   -3.5,  999.0,  999.0,   -6.0,   -2.6,   -0.8,   -0.6,   -0.0,    0.6,    1.1,    1.7,    1.6,    1.6,    2.0,    2.3,    2.9,    3.7,    4.2,    5.8,    7.7,    9.2,    9.4,   10.0,   11.8,   13.8,   15.4,   17.3,   18.5,   18.9,   18.2,   20.0,   22.5,   26.1,   32.0,   35.5,   36.6,   38.3,   36.8,   34.2,  999.0,  999.0,  999.0,  999.0,  999.0,  999.0,  999.0,  999.0,  999.0,    0.1,    0.3,   -0.0,    0.3,   -0.0,   -0.1,   -0.2,   -0.0,    0.3,    0.3,    0.1,   -0.1,    0.4,    0.1,  999.0,  999.0,  999.0,  999.0,  999.0,  999.0,  999.0,  999.0,  999.0,  999.0,  999.0,  999.0,  999.0
2012/03/23 15:30,  999.0,   -3.8,   -3.8,   -2.4,  999.0,   -7.6,  999.0,  999.0,   -3.6,   -1.7,   -1.0,   -0.5,    0.1,    0.8,    1.5,    2.0,    1.6,    1.2,    1.6,    2.3,    2.8,    2.9,    3.4,    4.6,    7.0,    9.3,   10.9,   10.2,   11.8,   13.3,   15.4,   17.2,   18.1,   18.6,   18.9,   19.0,   20.7,   23.3,   26.3,   29.0,   33.0,   34.1,   34.5,  999.0,  999.0,  999.0,  999.0,  999.0,  999.0,  999.0,   -0.1,   -0.1,   -0.0,   -0.0,    0.2,    0.1,    0.2,    0.1,   -0.1,    0.1,    0.1,    0.2,    0.7,   -0.1,    0.0,   -0.4,   -0.0,  999.0,  999.0,  999.0,  999.0,  999.0,  999.0,  999.0,  999.0,  999.0,  999.0,  999.0,  999.0,  999.0
2012/03/23 15:40,  999.0,   -4.6,   -4.8,  999.0,  999.0,   -6.7,  999.0,  999.0,   -3.3,   -2.1,   -1.1,   -0.7,   -0.1,    0.4,    0.7,    0.9,    1.0,    0.8,    1.4,    1.6,    1.7,    2.1,    3.3,    6.2,    8.6,   11.2,   12.7,   13.4,   13.6,   14.4,   16.7,   17.7,   18.6,   19.1,   19.2,   20.0,   22.8,   25.1,   29.4,   32.5,   33.6,  999.0,  999.0,  999.0,  999.0,  999.0,  999.0,  999.0,    0.2,    0.2,    0.1,    0.0,    0.1,    0.3,   -0.1,    0.2,    0.2,   -0.2,   -0.1,   -0.1,    0.1,    0.3,    0.3,   -0.2,    0.5,    0.1,    0.3,    0.5,  999.0,  999.0,  999.0,  999.0,  999.0,  999.0,  999.0,  999.0,  999.0,  999.0,  999.0,  999.0
2012/03/23 15:50,  999.0,  999.0,  999.0,  999.0,   -2.9,  999.0,  999.0,  999.0,   -5.4,   -1.7,   -1.1,   -0.8,   -0.1,    0.0,    0.1,    0.5,    1.1,    1.6,    2.5,    2.3,    2.6,    3.7,    6.2,    9.3,   11.4,   13.1,   14.0,   14.8,   15.9,   16.5,   17.7,   17.3,   16.8,   17.6,   19.1,   22.3,   25.4,   27.7,   29.7,   32.4,   32.8,   34.1,   34.1,  999.0,  999.0,  999.0,  999.0,  999.0,    0.1,  999.0,   -0.0,   -0.1,   -0.2,    0.1,    0.0,   -0.1,   -0.0,   -0.1,   -0.2,   -0.1,   -0.1,   -0.0,   -0.2,   -0.3,   -0.1,    0.2,  999.0,    0.2,   -0.0,  999.0,  999.0,   -0.0,  999.0,  999.0,  999.0,  999.0,  999.0,  999.0,  999.0,  999.0
2012/03/23 16:00,  999.0,  999.0,  999.0,  999.0,   -3.4,  999.0,  999.0,   -7.0,   -2.4,   -0.4,   -0.1,   -0.2,   -0.4,   -0.3,   -0.3,    0.4,    1.8,    2.8,    2.9,    2.5,    2.9,    4.0,    7.1,   10.1,   12.7,   13.4,   14.3,   15.5,   16.3,   17.7,   18.5,   17.2,   16.8,  999.0,   20.0,   23.1,   25.8,   30.1,   30.4,   32.4,   32.3,   32.3,   32.3,   31.8,  999.0,  999.0,  999.0,  999.0,  999.0,  999.0,  999.0,   -0.2,   -0.0,    0.2,    0.2,   -0.3,   -0.1,    0.1,   -0.1,   -0.0,    0.0,   -0.3,   -0.2,   -0.2,   -0.2,    0.1,    0.2,   -0.0,    0.4,    0.1,    0.2,  999.0,  999.0,  999.0,  999.0,  999.0,  999.0,  999.0,  999.0,  999.0
2012/03/23 16:10,  999.0,   -5.0,   -4.0,   -5.2,   -4.3,   -3.0,   -2.4,   -2.3,   -0.5,    1.0,    1.1,    0.8,    0.7,    0.2,   -0.0,    1.2,    2.1,    2.9,    3.0,    2.9,    2.7,    3.6,    6.7,   10.2,   12.8,   14.4,   15.1,   16.5,   16.6,   18.0,   18.0,   18.8,   18.9,   18.4,  999.0,  999.0,   26.3,   29.2,   31.3,   29.9,   29.7,   29.2,   29.6,   29.5,   30.4,   31.4,   32.3,   33.4,   35.2,   34.6,   34.0,  999.0,  999.0,  999.0,  999.0,  999.0,  999.0,  999.0,  999.0,   -0.2,  999.0,    0.1,    0.2,    0.3,   -0.1,    0.4,    0.5,   -0.1,  999.0,  999.0,  999.0,  999.0,  999.0,  999.0,  999.0,  999.0,  999.0,  999.0,  999.0,  999.0
2012/03/23 16:20,  999.0,   -6.2,  999.0,  999.0,   -2.1,   -3.1,   -2.3,   -2.0,   -0.4,    0.5,    0.7,    0.3,    0.1,   -0.3,   -0.5,    1.1,    1.6,    2.3,    1.6,    1.1,    1.7,    2.9,    6.1,   12.1,   13.9,   15.2,   16.2,   17.9,   18.5,   19.0,   19.0,   19.4,   19.9,   19.7,   20.2,   22.7,   25.5,   28.6,   31.2,   31.8,   30.1,   29.0,   29.0,   29.8,   30.6,   31.6,   32.6,   33.0,   33.3,   34.2,   35.2,   35.9,   36.5,   37.7,  999.0,  999.0,  999.0,  999.0,  999.0,  999.0,  999.0,   -0.2,   -0.1,   -0.1,   -0.0,   -0.2,    0.2,   -0.2,  999.0,  999.0,  999.0,    0.3,  999.0,  999.0,  999.0,  999.0,  999.0,  999.0,  999.0,  999.0
2012/03/23 16:30,  999.0,  999.0,  999.0,  999.0,   -2.6,   -2.8,   -3.0,   -2.5,   -1.3,   -0.3,    0.1,    0.0,   -0.2,   -0.3,   -0.4,    0.8,    1.9,    2.1,    0.8,    0.2,    1.4,    2.3,    4.1,    8.1,   12.1,   13.9,   16.0,   18.9,   20.1,   20.1,   20.3,   21.0,   21.0,   20.5,   19.8,   21.2,   23.5,   26.2,   28.3,   30.7,   30.7,   29.2,   28.2,   28.3,   28.7,   29.6,   31.0,   31.8,   32.4,   33.8,   34.5,   36.2,   36.7,  999.0,  999.0,  999.0,  999.0,  999.0,  999.0,  999.0,  999.0,    0.0,   -0.2,    0.3,    0.2,  999.0,   -0.7,   -0.6,  999.0,  999.0,  999.0,  999.0,  999.0,  999.0,  999.0,  999.0,  999.0,  999.0,  999.0,  999.0
2012/03/23 16:40,  999.0,   -1.4,   -1.4,   -0.4,  999.0,  999.0,   -3.2,   -3.4,   -1.1,    0.0,    0.0,   -0.6,   -0.7,   -0.4,    0.4,    1.4,    1.5,    0.1,   -1.0,   -0.6,    0.9,    2.1,    3.5,    7.1,   11.1,   13.5,   15.9,   19.4,   21.2,   21.6,   21.8,   22.3,   22.4,   21.5,   20.3,   20.8,   22.8,   24.8,   26.8,   28.7,   30.3,   29.3,   28.5,   27.6,   28.2,   29.3,   30.0,   30.7,   32.1,   32.9,   33.6,   33.2,   34.0,   33.8,   35.8,  999.0,  999.0,  999.0,  999.0,  999.0,  999.0,  999.0,  999.0,  999.0,  999.0,  999.0,  999.0,  999.0,  999.0,  999.0,  999.0,  999.0,  999.0,  999.0,  999.0,  999.0,  999.0,  999.0,  999.0,  999.0
2012/03/23 16:50,  999.0,   -3.2,    0.6,   -2.2,  999.0,  999.0,   -6.2,   -3.5,   -1.1,   -0.1,   -0.5,   -1.2,   -0.8,    0.3,    1.2,    0.9,   -0.6,   -1.5,   -0.8,    1.1,    2.2,    2.8,    3.8,    7.8,   11.6,   14.3,   16.9,   20.0,   22.1,   22.4,   22.8,   23.8,   23.2,   22.8,   22.7,   21.7,   23.1,   25.3,   27.9,   29.5,   30.0,   28.5,   27.4,   26.8,   26.1,   26.8,   27.3,   28.5,   29.2,   30.7,   32.5,   33.6,   34.7,   34.6,   35.4,  999.0,  999.0,  999.0,  999.0,  999.0,  999.0,  999.0,  999.0,  999.0,  999.0,  999.0,  999.0,  999.0,  999.0,  999.0,  999.0,  999.0,  999.0,  999.0,  999.0,  999.0,  999.0,  999.0,  999.0,  999.0
2012/03/23 17:00,  999.0,  999.0,   -1.8,   -4.3,  999.0,   -2.4,   -2.1,   -0.7,   -0.1,   -0.7,   -0.9,   -0.7,    0.2,    0.7,    0.2,   -1.4,   -2.2,   -1.9,   -0.1,    1.4,    2.3,    3.1,    5.0,    9.1,   12.3,   14.4,   16.9,   19.5,   21.4,   22.2,   22.7,   23.9,   23.8,   22.9,   22.0,   22.9,   25.1,   27.1,   29.2,   29.3,   28.3,   28.3,   27.8,   26.4,   27.0,   27.6,   27.6,   27.8,   28.6,   29.0,   30.0,   31.9,   33.0,   34.2,   35.4,   35.7,   37.3,   38.6,   38.1,  999.0,  999.0,  999.0,  999.0,  999.0,  999.0,  999.0,  999.0,  999.0,  999.0,  999.0,  999.0,  999.0,  999.0,  999.0,  999.0,  999.0,  999.0,  999.0,  999.0,  999.0
2012/03/23 17:10,  999.0,    0.3,   -0.3,   -4.4,   -3.3,   -2.3,   -1.6,    0.1,    0.1,   -0.6,   -1.5,   -0.6,   -0.2,   -1.0,   -2.2,   -3.0,   -2.9,   -1.4,    0.2,    0.8,    1.4,    2.7,    5.1,    8.3,   12.5,   14.9,   17.6,   20.3,   21.7,   22.8,   23.4,   24.6,   24.1,   22.1,   22.4,   24.5,   26.8,   28.3,   29.3,   29.3,   28.7,   28.0,   27.7,   27.2,   27.4,   27.6,   27.5,   27.7,   28.0,   29.0,   30.0,   31.2,   31.8,   32.8,   33.7,   34.6,   34.0,   34.7,   37.5,   37.3,  999.0,  999.0,  999.0,  999.0,  999.0,  999.0,  999.0,  999.0,  999.0,  999.0,  999.0,  999.0,  999.0,  999.0,  999.0,  999.0,  999.0,  999.0,  999.0,  999.0
2012/03/23 17:20,  999.0,  999.0,  999.0,  999.0,  999.0,  999.0,   -1.2,   -0.9,   -0.4,   -0.6,   -0.8,   -0.3,   -0.7,   -2.4,   -4.2,   -4.0,   -2.8,   -1.6,   -0.5,    0.7,    2.3,    3.8,    5.4,    8.7,   12.9,   15.0,   17.6,   20.7,   22.9,   23.5,   24.0,   24.9,   24.6,   23.0,   22.6,   24.2,   26.2,   27.5,   28.3,   29.1,   29.3,   28.6,   27.8,   27.9,   27.8,   27.1,   27.3,   27.5,   28.0,   28.3,   28.8,   29.7,   30.3,   31.2,   31.3,   31.5,   32.6,   33.8,   35.3,   36.1,   37.0,  999.0,  999.0,  999.0,  999.0,  999.0,  999.0,  999.0,  999.0,  999.0,  999.0,  999.0,  999.0,  999.0,  999.0,  999.0,  999.0,  999.0,  999.0,  999.0
2012/03/23 17:30,  999.0,  999.0,  999.0,  999.0,  999.0,  999.0,  999.0,  999.0,   -0.7,   -0.7,   -0.2,   -0.5,   -2.4,   -4.1,   -4.6,   -4.0,   -3.0,   -2.4,   -1.7,    0.2,    2.3,    4.2,    5.3,    8.4,   12.8,   15.3,   18.1,   21.1,   23.3,   24.1,   25.1,   25.5,   25.2,   24.5,   24.2,   24.3,   25.3,   26.5,   27.9,   28.4,   28.6,   28.3,   28.1,   27.8,   27.3,   26.9,   26.8,   27.0,   27.3,   27.8,   28.0,   28.7,   29.1,   29.4,   29.7,   30.0,   31.2,   32.7,   33.9,   35.0,   36.4,   39.0,   39.9,   40.5,   41.4,  999.0,  999.0,  999.0,  999.0,  999.0,  999.0,  999.0,  999.0,  999.0,  999.0,  999.0,  999.0,  999.0,  999.0,  999.0
2012/03/23 17:40,  999.0,  999.0,  999.0,  999.0,  999.0,  999.0,  999.0,   -2.3,   -2.2,   -1.3,   -0.8,   -2.2,   -3.9,   -5.1,   -5.6,   -4.9,   -4.0,   -2.9,   -1.8,   -0.3,    2.0,    3.8,    5.5,    8.3,   12.7,   15.3,   17.5,   20.6,   22.7,   24.3,   25.0,   26.2,   25.5,   25.9,   24.8,   24.7,   25.5,   26.7,   27.6,   28.4,   28.3,   28.0,   27.7,   27.7,   28.0,   28.1,   27.6,   27.3,   27.0,   27.4,   28.2,   29.0,   29.9,   30.9,   31.5,   32.1,   32.4,   34.2,   35.7,   37.5,   38.8,   39.4,   41.3,   41.0,  999.0,  999.0,  999.0,  999.0,  999.0,  999.0,  999.0,  999.0,  999.0,  999.0,  999.0,  999.0,  999.0,  999.0,  999.0,  999.0
2012/03/23 17:50,  999.0,  999.0,  999.0,  999.0,  999.0,  999.0,  999.0,   -1.8,   -1.5,   -1.1,   -0.8,   -2.7,   -4.8,   -6.3,   -6.9,   -6.5,   -5.0,   -3.9,   -2.6,   -1.0,    0.4,    1.8,    4.3,    7.3,   11.9,   14.2,   16.4,   19.7,   21.6,   22.7,   24.3,   24.8,   25.5,   25.3,   24.8,   24.4,   25.6,   27.0,   27.7,   27.5,   27.2,   27.0,   26.3,   25.8,   26.1,   26.8,   26.9,   26.4,   27.2,   28.1,   29.3,   29.8,   31.3,   31.6,   31.5,   31.7,   32.2,   32.5,   33.8,   35.2,   36.7,   39.4,   39.0,   37.9,  999.0,  999.0,  999.0,  999.0,  999.0,  999.0,  999.0,  999.0,  999.0,  999.0,  999.0,  999.0,  999.0,  999.0,  999.0,  999.0
2012/03/23 18:00,  999.0,  999.0,  999.0,  999.0,  999.0,  999.0,  999.0,   -0.6,   -0.7,   -2.0,   -3.1,   -4.7,   -6.0,   -6.2,   -5.8,   -4.8,   -4.0,   -3.0,   -2.3,   -1.7,   -0.9,    0.7,    2.6,    6.7,   11.3,   14.6,   17.2,   19.9,   23.3,   24.2,   25.2,   25.9,   25.3,   24.7,   24.3,   25.5,   26.8,   26.7,   26.6,   27.0,   27.2,   27.0,   26.7,   26.6,   26.5,   26.7,   26.8,   27.0,   27.4,   28.5,   28.3,   29.1,   29.6,   30.0,   30.3,   31.1,   32.4,   34.2,   35.1,   36.7,   37.5,   36.8,  999.0,   37.7,  999.0,  999.0,  999.0,  999.0,  999.0,  999.0,  999.0,  999.0,  999.0,  999.0,  999.0,  999.0,  999.0,  999.0,  999.0,  999.0
2012/03/23 18:10,  999.0,  999.0,  999.0,  999.0,  999.0,  999.0,  999.0,   -0.2,   -2.4,   -4.1,   -6.9,   -7.9,   -6.2,   -6.8,   -6.1,   -5.3,   -5.0,   -4.2,   -3.4,   -2.8,   -1.6,    0.4,    3.2,    7.3,   12.0,   15.0,   17.7,   20.7,   23.0,   24.0,   24.5,   25.2,   25.6,   24.5,   23.9,   25.0,   25.2,   26.0,   26.2,   26.3,   26.8,   26.9,   27.0,   26.8,   26.5,   26.7,   26.2,   26.3,   26.6,   27.0,   27.5,   27.6,   28.7,   30.4,   31.9,   33.5,   34.9,   35.3,   34.7,   35.1,   37.0,   35.1,   36.1,  999.0,  999.0,  999.0,  999.0,  999.0,  999.0,  999.0,  999.0,  999.0,  999.0,  999.0,  999.0,  999.0,  999.0,  999.0,  999.0,  999.0
2012/03/23 18:20,  999.0,  999.0,  999.0,  999.0,  999.0,  999.0,   -2.7,   -2.2,   -1.5,   -4.4,   -7.3,   -8.2,   -8.3,   -7.7,   -7.2,   -6.6,   -5.5,   -4.0,   -2.7,   -1.7,   -0.9,    0.7,    3.5,    7.7,   12.5,   15.4,   16.8,   20.1,   22.0,   23.0,   23.7,   23.9,   24.3,   23.8,   23.7,   24.0,   25.1,   25.8,   26.5,   26.5,   26.5,   26.2,   27.1,   27.2,   27.3,   26.9,   26.2,   25.6,   25.6,   26.2,   27.6,   29.4,   31.2,   32.6,   33.4,   34.1,   34.8,   35.9,   34.9,   35.3,   36.5,   37.3,   36.4,  999.0,  999.0,  999.0,  999.0,  999.0,  999.0,  999.0,  999.0,  999.0,  999.0,  999.0,  999.0,  999.0,  999.0,  999.0,  999.0,  999.0
2012/03/23 18:30,  999.0,  999.0,  999.0,  999.0,  999.0,   -2.1,   -2.4,   -2.9,   -4.2,   -5.7,   -7.3,   -8.6,   -8.6,   -8.3,   -7.6,   -6.1,   -4.8,   -3.5,   -2.4,   -1.9,   -0.9,    0.8,    3.1,    7.0,   11.8,   15.5,   17.3,   20.4,   22.6,   23.7,   24.5,   24.4,   24.1,   23.1,   22.8,   23.6,   24.9,   26.9,   27.5,   27.1,   26.8,   27.5,   27.4,   26.4,   25.9,   26.1,   26.5,   27.0,   28.4,   30.1,   31.3,   32.9,   33.5,   32.8,   34.1,   34.6,   34.6,   35.5,   36.9,   35.8,  999.0,  999.0,  999.0,  999.0,  999.0,  999.0,  999.0,  999.0,  999.0,  999.0,  999.0,  999.0,  999.0,  999.0,  999.0,  999.0,  999.0,  999.0,  999.0,  999.0
2012/03/23 18:40,  999.0,   -2.5,   -3.5,   -2.7,   -1.5,   -2.2,   -3.7,   -3.8,   -4.6,   -6.1,   -6.7,   -8.1,   -8.0,   -7.9,   -6.9,   -5.4,   -4.2,   -3.6,   -2.8,   -2.2,   -1.0,    0.3,    2.4,    6.1,   10.7,   15.0,   17.6,   19.9,   22.2,   23.5,   24.7,   24.1,   24.6,   23.0,   22.9,   25.1,   26.9,   27.9,   28.3,   28.7,   28.5,   27.9,   26.7,   26.5,   26.6,   27.1,   28.1,   29.5,   31.3,   32.2,   33.3,   33.5,   34.2,   33.8,   33.5,   33.7,   33.9,   34.3,  999.0,  999.0,  999.0,  999.0,  999.0,  999.0,  999.0,  999.0,  999.0,  999.0,  999.0,  999.0,  999.0,  999.0,  999.0,  999.0,  999.0,  999.0,  999.0,  999.0,  999.0,  999.0
2012/03/23 18:50,  999.0,   -2.5,  999.0,  999.0,   -3.2,   -2.1,  999.0,  999.0,   -5.0,   -6.4,   -7.6,   -7.7,   -6.7,   -6.5,   -6.4,   -5.6,   -4.8,   -3.6,   -2.9,   -2.6,   -1.9,   -0.8,    1.0,    5.3,   10.1,   13.5,   19.0,   20.6,   23.1,   23.9,   25.1,   25.4,   25.5,   23.7,   23.6,   25.1,   26.4,   27.2,   27.6,   28.3,   28.0,   27.6,   27.4,   28.1,   28.5,   28.9,   29.8,   30.6,   31.6,   33.2,   32.7,   30.6,   32.6,   32.6,   32.9,   33.6,   34.9,   34.3,  999.0,  999.0,  999.0,  999.0,  999.0,  999.0,  999.0,  999.0,  999.0,  999.0,  999.0,  999.0,  999.0,  999.0,  999.0,  999.0,  999.0,  999.0,  999.0,  999.0,  999.0,  999.0
2012/03/23 19:00,  999.0,   -1.0,   -2.4,   -3.7,   -3.8,   -3.7,   -5.6,   -6.6,   -6.7,   -7.4,   -8.2,   -8.5,   -7.6,   -7.0,   -7.2,   -7.0,   -6.0,   -4.7,   -3.5,   -2.5,   -1.8,   -1.0,    1.4,    5.5,   10.2,   13.2,   17.1,   19.8,   21.8,   23.6,   24.1,   24.7,   24.4,   23.6,   22.8,   23.5,   24.3,   25.2,   25.9,   27.1,   27.6,   27.9,   28.3,   28.8,   29.5,   30.8,   31.5,   31.9,   32.2,   32.8,   32.8,   33.6,   33.4,   33.0,   33.3,   32.4,   33.6,   35.2,   34.9,  999.0,  999.0,  999.0,  999.0,  999.0,  999.0,  999.0,  999.0,  999.0,  999.0,  999.0,  999.0,  999.0,  999.0,  999.0,  999.0,  999.0,  999.0,  999.0,  999.0,  999.0
2012/03/23 19:10,  999.0,  999.0,  999.0,   -3.4,   -4.6,   -5.4,   -6.2,   -7.3,   -6.7,   -7.0,   -7.8,   -8.4,   -8.0,   -7.3,   -6.2,   -5.9,   -5.2,   -4.1,   -2.1,   -1.0,   -0.1,    1.1,    3.0,    6.1,   10.3,   13.7,   17.5,   19.5,   21.8,   23.3,   23.9,   24.6,   25.1,   24.4,   23.7,   23.4,   24.0,   24.4,   25.4,   26.7,   26.5,   26.4,   28.0,   28.0,   29.1,   30.0,   32.5,   31.3,   31.1,   31.4,   31.9,   32.1,   32.3,   31.1,   31.7,   34.0,   34.8,   35.5,  999.0,  999.0,  999.0,  999.0,  999.0,  999.0,  999.0,  999.0,  999.0,  999.0,  999.0,  999.0,  999.0,  999.0,  999.0,  999.0,  999.0,  999.0,  999.0,  999.0,  999.0,  999.0
2012/03/23 19:20,  999.0,  999.0,   -0.6,   -0.0,   -0.4,   -1.5,   -2.2,   -5.4,   -7.4,   -8.8,   -9.1,   -9.5,   -9.9,   -9.1,   -7.6,   -6.8,   -5.6,   -4.6,   -3.2,   -2.4,   -1.8,   -0.8,    0.7,    4.4,    8.3,   12.5,   16.4,   18.5,   20.3,   21.7,   23.8,   24.5,   24.9,   25.1,   25.0,   24.3,   23.4,   22.8,   22.6,   22.8,   23.6,   25.0,   26.3,   27.0,   28.3,   29.7,   30.5,   31.1,   32.0,   32.5,   32.4,   32.6,   33.0,   33.7,   34.8,   34.8,   35.1,   35.2,  999.0,  999.0,  999.0,  999.0,  999.0,  999.0,  999.0,  999.0,  999.0,  999.0,  999.0,  999.0,  999.0,  999.0,  999.0,  999.0,  999.0,  999.0,  999.0,  999.0,  999.0,  999.0
2012/03/23 19:30,  999.0,   -0.9,   -0.7,   -0.4,   -0.1,   -1.7,   -3.1,   -6.8,   -8.4,   -9.8,  -10.1,   -9.9,  -10.1,   -9.1,   -7.6,   -6.7,   -5.2,   -3.9,   -2.6,   -1.7,    0.0,    1.8,    3.7,    6.5,    9.5,   12.2,   15.2,   17.0,   19.4,   21.6,   23.1,   24.6,   25.2,   25.7,   26.2,   25.3,   24.2,   24.2,   23.9,   23.7,   24.7,   25.9,   27.3,   28.3,   29.7,   30.6,   31.2,   31.5,   32.3,   32.5,   32.2,   31.9,   31.5,   32.1,   32.6,   33.5,   34.2,   35.8,   36.5,  999.0,  999.0,  999.0,  999.0,  999.0,  999.0,  999.0,  999.0,  999.0,  999.0,  999.0,  999.0,  999.0,  999.0,  999.0,  999.0,  999.0,  999.0,  999.0,  999.0,  999.0
2012/03/23 19:40,  999.0,    0.1,   -0.1,    0.9,   -0.2,   -1.7,   -3.9,   -6.1,   -7.6,   -9.0,  -10.4,  -11.1,  -10.6,   -9.7,   -8.6,   -7.0,   -5.6,   -3.9,   -2.4,   -1.5,   -0.4,    1.2,    3.3,    6.5,   10.5,   11.4,   15.0,   17.0,   19.0,   21.8,   23.1,   24.7,   25.3,   25.8,   25.6,   24.7,   23.6,   22.3,   22.9,   24.5,   26.0,   27.5,   28.4,   29.4,   30.6,   31.7,   32.3,   31.8,   32.2,   32.0,   32.6,   32.9,   33.4,   34.0,   34.2,   33.8,   34.5,   36.1,   35.7,  999.0,  999.0,  999.0,  999.0,  999.0,  999.0,  999.0,  999.0,  999.0,  999.0,  999.0,  999.0,  999.0,  999.0,  999.0,  999.0,  999.0,  999.0,  999.0,  999.0,  999.0
2012/03/23 19:50,  999.0,    0.4,   -0.2,    0.6,   -0.5,   -2.9,   -5.6,   -6.4,   -7.0,   -8.7,  -10.4,  -12.3,  -11.3,   -9.6,   -6.5,   -5.2,   -4.9,   -3.4,   -3.1,   -1.0,    0.0,    1.9,    3.9,    7.7,    8.0,   12.0,  999.0,   17.8,   19.7,   22.2,   23.7,   22.3,   24.3,   24.4,   24.4,   23.4,   22.1,   22.6,   23.6,   25.1,   26.5,   27.1,   28.3,   29.7,   30.3,   30.6,   30.8,   31.3,   31.9,   32.4,   33.1,   33.9,   33.8,   34.3,   35.2,   35.3,   33.5,   34.4,   36.8,   36.9,   35.6,  999.0,  999.0,  999.0,  999.0,  999.0,  999.0,  999.0,  999.0,  999.0,  999.0,  999.0,  999.0,  999.0,  999.0,  999.0,  999.0,  999.0,  999.0,  999.0
2012/03/23 20:00,  999.0,   -0.1,   -1.4,   -2.5,   -2.0,   -2.7,   -4.9,   -6.6,   -7.8,   -8.8,  -10.8,  -12.2,  -12.1,  -10.7,   -9.5,   -7.6,   -6.3,   -4.9,   -3.3,   -2.0,   -1.2,   -0.1,    1.5,    6.4,    8.9,   12.8,  999.0,   17.9,   -8.4,  -32.3,  999.0,  999.0,  999.0,   23.7,   24.1,   22.5,   21.7,   23.0,   24.2,   25.8,   26.3,   27.3,   28.1,   29.1,   29.6,   30.0,   30.4,   30.8,   31.4,   31.6,   31.9,   32.5,   33.7,   33.9,   34.2,   35.3,   35.3,   36.0,   36.3,   36.3,   35.5,   34.0,   34.4,   35.6,   35.9,   36.8,   37.9,   37.8,   37.8,   38.2,   39.5,   39.6,  999.0,  999.0,  999.0,  999.0,  999.0,  999.0,  999.0,  999.0
2012/03/23 20:10,  999.0,    0.1,    0.2,  999.0,    0.1,   -1.9,   -3.5,   -5.7,   -6.5,   -7.5,   -8.3,  -10.7,  -10.4,   -8.8,  -10.1,   -9.0,   -7.3,   -6.4,   -4.5,   -1.8,   -2.3,   -0.2,    2.9,    4.5,    7.7,  999.0,  999.0,  999.0,  999.0,  999.0,  999.0,  999.0,   24.7,   24.3,   23.6,   22.4,   22.7,   24.3,   25.7,   26.3,   27.6,   29.1,   29.7,   29.5,   29.0,   29.1,   29.1,   29.4,   30.0,   30.5,   32.0,   32.1,   32.9,   33.1,   33.3,   33.1,   34.2,   34.6,   34.8,   36.0,   35.1,   35.5,   35.0,   35.0,   36.1,   37.1,   37.8,   37.9,   37.6,   38.8,  999.0,  999.0,  999.0,  999.0,  999.0,  999.0,  999.0,  999.0,  999.0,  999.0
2012/03/23 20:20,  999.0,  999.0,  999.0,   -1.1,   -1.4,    0.0,   -0.0,   -2.4,   -5.8,   -6.5,   -7.9,  -11.3,  -12.7,  -11.9,  -10.3,   -9.5,   -7.2,   -5.0,   -2.9,   -1.0,   -0.0,    1.5,    3.5,    6.0,    8.2,   10.7,   13.9,   17.9,  999.0,   23.0,   23.6,   23.8,   24.4,   23.9,   23.6,   22.5,   22.4,   24.3,   26.2,   27.9,   29.4,   29.1,   29.2,   28.8,   28.7,   28.9,   29.3,   29.8,   29.9,   30.3,   31.2,   32.2,   33.1,   34.4,   34.4,   34.1,   34.3,   35.3,   35.5,   35.7,   36.0,   35.1,   34.3,   34.8,   36.8,   37.8,   38.7,   39.7,   39.7,  999.0,  999.0,  999.0,  999.0,  999.0,  999.0,  999.0,  999.0,  999.0,  999.0,  999.0
2012/03/23 20:30,  999.0,  999.0,  999.0,   -1.2,   -2.9,   -1.4,   -2.9,   -2.1,   -2.9,   -5.1,   -7.1,   -9.5,   -9.4,  -12.2,  -10.8,   -9.4,   -6.4,   -4.3,   -2.3,   -0.2,    1.5,    3.5,    5.8,    7.0,   -5.4,  999.0,  999.0,  -36.9,  -35.8,  -33.0,  999.0,  999.0,  999.0,  999.0,   22.6,   22.2,   21.6,   23.2,   25.2,   26.2,   27.6,   28.1,   27.8,   28.1,   28.5,   28.5,   28.8,   28.8,   29.1,   31.3,   33.4,   34.4,  999.0,  999.0,  999.0,  999.0,  999.0,  -19.5,  999.0,   -0.5,   17.2,   13.5,   34.6,   35.8,   36.5,   37.1,   37.9,   39.1,   38.9,  999.0,  999.0,  999.0,  999.0,  999.0,  999.0,  999.0,  999.0,  999.0,  999.0,  999.0
2012/03/23 20:40,  999.0,  999.0,    0.3,   -1.8,   -2.9,   -1.0,   -1.5,   -3.5,  999.0,   -6.4,  -10.1,  999.0,  999.0,  999.0,  -11.8,  999.0,  999.0,  999.0,   -2.5,   -1.7,   -1.3,    0.1,  999.0,  999.0,  999.0,  -42.5,  -39.8,  -37.0,  -35.2,  -34.0,  -33.3,  999.0,  999.0,  999.0,  999.0,   22.5,   23.5,   23.8,   24.4,   26.0,   27.7,   28.1,   27.9,   28.2,   27.9,   28.1,   28.9,   29.2,   30.6,   32.5,   33.6,   33.9,  -20.8,  -20.2,  -13.1,  -18.9,  -18.7,  -18.6,  -18.2,  -18.7,  -18.8,  -18.4,  -18.8,  999.0,   -7.1,  999.0,   37.9,   38.2,  999.0,  999.0,  999.0,  -12.8,  999.0,  999.0,  999.0,  999.0,  999.0,  999.0,  999.0,  999.0
2012/03/23 20:50,  999.0,  999.0,   -3.9,   -1.4,   -3.3,   -2.3,   -2.8,   -3.4,   -5.1,   -7.0,   -9.1,  -11.4,  -13.1,  -13.1,  -11.9,  -10.1,   -8.8,   -6.0,   -3.7,   -1.7,    0.0,    2.3,    3.3,  999.0,  999.0,  999.0,  -38.3,  -36.1,  -34.6,  999.0,  999.0,   23.7,   24.6,   24.1,   23.6,   23.0,   23.3,   24.3,   25.4,   26.7,   27.1,   27.5,   27.3,   27.6,   28.1,   28.5,   28.9,   29.7,   31.0,   32.3,  999.0,  999.0,  999.0,  -21.3,  -19.3,  -18.6,  -17.6,  -18.6,  -18.5,  -18.7,  -18.7,  -18.2,  -18.5,  -18.2,  -17.8,  999.0,  999.0,   37.3,  999.0,  999.0,  999.0,  -15.3,  -14.4,  999.0,  999.0,  999.0,  999.0,  999.0,  999.0,  999.0
2012/03/23 21:00,  999.0,    1.0,    1.2,   -2.6,   -3.9,   -3.8,   -3.7,   -4.4,   -5.8,   -7.7,   -9.6,  -11.2,  -12.5,  -12.6,  -12.0,  -10.3,   -8.6,   -6.0,   -3.9,   -2.0,   -0.1,    2.1,    4.2,  999.0,  999.0,  -42.2,  -37.6,  -35.1,  -34.0,  999.0,  999.0,   24.1,   24.7,   24.6,   24.4,   24.8,   24.4,   24.2,   24.7,   25.6,   26.1,   26.8,   27.2,   27.3,   27.2,   27.5,   28.4,   30.3,   30.9,   32.7,   33.6,   33.7,   34.4,  999.0,  999.0,  999.0,  -17.9,  -18.5,  -18.2,  -18.1,  -18.7,  -18.8,  -19.6,  -19.4,  -19.3,  -20.1,  999.0,  999.0,  -17.3,  -15.8,  -16.8,  -16.3,  -15.7,  -13.7,  -14.3,  999.0,  999.0,  999.0,  999.0,  999.0
2012/03/23 21:10,  999.0,    2.2,    0.3,   -2.6,   -4.8,   -5.9,   -6.2,   -6.1,   -6.8,   -8.0,   -9.9,  -11.9,  -12.8,  -12.3,  -11.9,  -10.6,   -8.6,   -6.1,   -3.2,   -1.4,    0.6,    2.8,  999.0,  999.0,  999.0,  999.0,  999.0,  999.0,  -34.1,  999.0,  999.0,  999.0,  999.0,   24.8,   24.5,   24.2,   23.8,   23.7,   24.8,   26.1,   27.3,   27.8,   27.4,   27.0,   27.6,   29.3,   30.3,   31.3,   32.5,   33.4,   34.1,   35.7,   36.3,  999.0,  999.0,  999.0,  999.0,  999.0,  999.0,  999.0,  999.0,  999.0,  -20.3,  -20.9,  999.0,  999.0,  999.0,  999.0,  -17.0,  999.0,    0.6,    0.2,  999.0,  999.0,  999.0,  999.0,  999.0,  999.0,  999.0,  999.0
2012/03/23 21:20,  999.0,    3.1,    2.9,   -1.3,   -4.3,   -6.1,   -6.8,   -7.2,   -7.6,   -8.5,  -10.6,  -12.0,  -12.8,  -13.1,  -12.5,  -10.6,   -8.9,   -6.7,   -4.5,   -2.5,   -0.3,    2.4,  999.0,  999.0,  999.0,  999.0,  -40.3,  -37.5,  -35.2,  999.0,  999.0,  999.0,  999.0,   24.9,   24.8,   24.7,   24.6,   24.1,   24.1,   24.5,   25.0,   26.1,   26.9,   27.4,   27.6,   27.1,   28.2,   28.6,   29.9,   30.9,   33.2,   34.1,   36.0,   37.3,   38.0,   38.6,   36.5,  999.0,  999.0,  999.0,  999.0,  999.0,    7.2,  999.0,  999.0,  999.0,  999.0,  999.0,  -16.7,  999.0,  -17.2,  -15.2,  999.0,  999.0,  999.0,  999.0,  999.0,  999.0,  999.0,  999.0
2012/03/23 21:30,  999.0,    2.5,    2.7,   -0.0,   -2.5,   -4.5,   -6.5,   -7.6,   -8.3,   -8.9,   -9.8,  -11.0,  -12.0,  -12.2,  -11.7,  -10.3,   -8.1,   -5.5,   -3.4,   -1.0,    2.0,  999.0,  999.0,  999.0,  999.0,  999.0,  999.0,  -36.8,  -34.9,  999.0,  999.0,  999.0,  999.0,   24.9,   25.4,   25.2,   25.3,   25.0,   24.8,   24.8,   25.3,   26.9,   27.8,   27.8,   27.9,   27.5,   27.9,   28.0,   28.2,   28.8,   28.9,   30.3,   31.3,   31.5,   32.9,   34.7,   35.2,   35.9,   36.0,   36.1,   37.9,   37.0,   35.9,  999.0,  999.0,  999.0,  -16.8,  -16.1,  -16.3,  -17.5,  -17.6,  -16.6,  -17.2,  999.0,  999.0,  999.0,  999.0,  999.0,  999.0,  999.0
2012/03/23 21:40,  999.0,    1.1,    1.8,    2.4,    1.1,   -1.6,   -3.8,   -5.9,   -7.5,   -8.5,   -8.8,   -9.8,  -11.0,  -11.7,  -11.6,  -10.1,   -7.0,   -4.5,   -2.3,   -0.4,    1.6,  999.0,  999.0,  999.0,  999.0,  999.0,  -39.6,  -38.2,  999.0,  999.0,  999.0,  999.0,  999.0,   25.0,   25.6,   25.6,   25.4,   25.3,   25.3,   25.9,   25.9,   26.6,   27.5,   27.6,   27.8,   27.9,   27.6,   27.5,   27.7,   27.5,   27.5,   27.9,   28.2,   28.5,   29.4,   30.1,   30.4,   31.6,   32.5,   32.1,   33.5,   34.0,   34.0,   34.2,   34.3,   35.3,   37.0,  999.0,  999.0,  999.0,  999.0,  999.0,  999.0,  -17.9,  -16.8,  999.0,  999.0,  999.0,  999.0,  999.0
2012/03/23 21:50,  999.0,   -0.6,   -2.5,   -1.2,    0.7,    0.6,   -2.0,   -4.0,   -5.1,   -7.3,   -8.8,   -9.7,  -10.8,  -10.7,   -9.8,   -7.9,   -5.6,   -3.0,   -0.6,    1.1,    3.0,  999.0,  999.0,  999.0,  999.0,  999.0,  999.0,  999.0,  999.0,  999.0,  999.0,  999.0,   24.2,   23.8,   24.7,   25.3,   25.6,   25.9,   26.1,   26.4,   26.4,   26.5,   26.6,   26.6,   27.1,   28.1,   28.8,   28.4,   27.8,   27.6,   28.0,   28.0,   28.1,   28.7,   29.6,   30.3,   29.7,   31.0,   32.0,   32.5,   33.9,   34.6,   34.4,   35.1,   34.5,   36.1,   36.8,   37.7,   37.1,  999.0,  999.0,  999.0,  999.0,  999.0,  999.0,  999.0,  999.0,  999.0,  999.0,  999.0
2012/03/23 22:00,  999.0,   -0.7,   -2.8,   -3.5,   -2.1,    0.8,   -0.6,   -2.4,   -4.1,   -5.8,   -7.7,   -9.8,  -11.1,  -10.9,  -10.0,   -7.6,   -5.5,   -3.2,   -1.3,    0.4,    2.6,  999.0,  999.0,  999.0,  999.0,  999.0,  -41.3,  999.0,  999.0,  999.0,  999.0,   22.8,   23.7,   24.7,   25.3,   25.5,   25.8,   25.8,   25.8,   25.4,   25.3,   26.1,   27.4,   28.1,   28.0,   28.6,   28.3,   27.5,   27.6,   27.6,   28.1,   28.2,   27.9,   28.7,   29.6,   30.5,   30.4,   31.8,   31.8,   31.7,   32.8,   33.2,   33.7,   34.4,   34.2,   35.6,   37.4,   39.0,   38.4,   38.4,   38.2,   37.4,   37.1,   36.6,   37.1,  999.0,  999.0,  999.0,  -16.8,  999.0
2012/03/23 22:10,  999.0,   -1.7,   -3.6,   -3.8,   -2.8,   -0.5,    0.0,   -2.3,   -4.5,   -5.4,   -6.8,   -8.8,  -10.8,  -10.5,   -9.8,   -7.3,   -4.1,   -1.0,    1.1,    2.6,    5.5,    7.2,  999.0,  999.0,  999.0,  999.0,  999.0,  999.0,  999.0,  999.0,  999.0,  999.0,   23.1,   23.2,   23.4,   23.9,   24.2,   24.5,   24.6,   24.8,   24.8,   25.0,   25.7,   25.9,   26.5,   26.8,   26.6,   27.1,   27.1,   26.8,   27.6,   28.1,   28.2,   29.1,   29.7,   30.1,   30.9,   32.3,   33.0,   32.7,   33.4,   33.3,   34.1,   35.9,   36.8,   37.5,   38.6,   38.7,   37.0,   37.1,   36.6,   35.6,   36.5,  999.0,   37.1,  999.0,  999.0,  999.0,  999.0,  999.0
2012/03/23 22:20,  999.0,   -2.5,   -3.9,   -4.6,   -3.8,   -1.4,   -0.8,   -2.3,   -3.7,   -5.4,   -6.8,   -9.1,  -12.0,  -11.9,  -10.9,   -8.7,   -6.0,   -3.1,   -2.7,   -2.7,  999.0,  999.0,  999.0,  999.0,  999.0,  999.0,  999.0,  999.0,  999.0,   19.9,   19.7,   19.7,   21.2,   22.2,   23.3,   24.0,   24.2,   24.6,   24.5,   24.8,   25.2,   26.0,   26.7,   27.3,   27.5,   27.5,   26.7,   26.3,   27.6,   28.7,   29.6,   30.6,   31.2,   31.3,   31.8,   33.3,   33.7,   35.7,   35.9,   35.7,   35.7,   36.5,   36.7,   37.9,   37.9,   38.2,   38.6,   38.7,   38.3,   38.1,  999.0,   38.1,   37.1,  999.0,  999.0,  999.0,  999.0,  999.0,  999.0,  999.0
2012/03/23 22:30,  999.0,   -1.5,   -3.9,   -4.6,   -3.7,   -2.7,   -0.9,   -2.7,   -4.6,   -5.7,   -6.9,   -8.6,  -10.9,  -12.1,  -11.1,   -9.1,   -6.3,   -3.3,    0.1,    1.4,    3.0,    2.8,    2.9,  999.0,  999.0,  999.0,  999.0,  999.0,  999.0,  999.0,  999.0,  999.0,   22.2,   22.7,   23.3,   24.6,   24.5,   24.4,   24.3,   23.9,   24.6,   25.8,   26.4,   27.2,   27.5,   27.5,   27.2,   27.8,   29.0,   30.2,   30.6,   30.4,   31.3,   32.5,   33.3,   34.1,   34.2,   36.2,   35.9,   36.2,   36.9,   36.4,   36.7,   38.2,   37.8,   38.6,   40.0,   40.9,   40.3,  999.0,  999.0,  999.0,  999.0,  999.0,  999.0,  999.0,  999.0,  999.0,  999.0,  999.0
2012/03/23 22:40,  999.0,   -2.2,   -3.6,   -3.7,   -3.3,   -1.4,   -2.2,   -4.1,   -6.0,   -7.0,   -7.6,   -8.4,   -9.5,  -10.6,  -10.1,   -8.2,   -5.8,   -4.1,   -2.7,   -2.0,   -1.8,   -1.6,   -1.2,  999.0,  999.0,  999.0,  999.0,  999.0,   18.5,   20.7,   22.0,   22.3,   22.7,   23.0,   23.3,   24.1,   24.1,   23.9,   24.1,   24.3,   25.5,   26.7,   27.5,   28.1,   28.3,   28.5,   28.0,   27.9,   29.0,   29.4,   29.8,   30.7,   31.2,   31.8,   32.8,   33.8,   34.0,   35.3,   36.3,   37.2,   37.0,   37.0,   36.4,   38.8,   40.0,  999.0,   40.5,  999.0,  999.0,  999.0,  999.0,  999.0,  999.0,  999.0,  999.0,  999.0,  999.0,  999.0,  999.0,  999.0
2012/03/23 22:50,  999.0,   -1.6,   -1.9,   -3.7,   -4.3,   -2.7,   -3.9,   -7.0,   -9.2,  -10.6,  -10.8,  -10.9,  -11.4,  -11.9,  -11.2,   -9.6,   -7.9,   -5.3,   -3.5,   -0.2,    2.1,    3.5,    4.3,    6.5,    9.1,   10.4,   14.5,   17.2,   19.6,   19.1,   21.0,   22.0,   22.5,   22.9,   23.4,   23.1,   23.0,   24.5,   25.5,   26.3,   27.3,   27.8,   28.5,   29.1,   30.0,   30.3,   29.6,   29.9,   30.3,   29.8,   30.3,   30.3,   30.4,   31.4,   32.3,   33.4,   33.9,   35.3,   36.2,   35.6,   36.4,   36.2,   36.3,   38.3,   37.5,   38.7,   39.0,   39.5,  999.0,  999.0,  999.0,  999.0,  999.0,  999.0,  999.0,  999.0,  999.0,  999.0,  999.0,  999.0
2012/03/23 23:00,  999.0,   -1.6,   -2.0,   -2.6,   -3.7,   -5.0,   -4.8,   -6.5,   -7.8,   -9.2,   -9.6,  -11.2,  -10.7,   -8.5,   -8.4,   -8.6,   -7.6,   -3.9,    0.0,    2.4,  999.0,  999.0,  999.0,  999.0,  999.0,    8.6,   13.0,   14.0,   17.9,  999.0,   20.4,   21.8,   22.3,   24.4,   24.6,   24.9,   25.6,   26.2,   26.7,   27.8,   28.9,   29.8,   30.4,   30.6,   31.5,   31.6,   31.6,   31.9,   32.6,   32.7,   33.4,   33.1,   33.8,   34.0,   35.5,   36.6,   36.9,   37.0,   37.2,   37.1,   37.2,   37.0,   37.5,  999.0,   38.2,  999.0,  999.0,  999.0,  999.0,  999.0,  999.0,  999.0,  999.0,  999.0,  999.0,  999.0,  999.0,  999.0,  999.0,  999.0
2012/03/23 23:10,  999.0,   -0.0,   -1.0,   -1.7,   -4.4,   -6.8,   -6.5,   -6.5,  -10.0,  -12.4,  -14.2,  -15.3,  -15.4,  -13.7,  -12.4,  -10.5,   -9.0,  999.0,  999.0,  999.0,  999.0,  999.0,  999.0,  999.0,  999.0,  999.0,  999.0,   15.6,  999.0,  999.0,   20.8,   21.1,   22.2,   21.8,   22.4,   23.3,   24.4,   24.9,   25.6,   26.4,   27.2,   27.8,   28.8,   29.4,   30.5,   30.7,   31.5,   33.3,   33.2,   34.4,   34.0,   34.0,  999.0,  999.0,  999.0,  999.0,  999.0,  999.0,   12.3,   20.2,  999.0,   13.3,   14.6,  999.0,   -0.6,   -0.6,   -0.4,   -0.2,   -0.3,   -0.5,  999.0,   -0.6,   -0.8,   -0.2,  999.0,  999.0,  999.0,  999.0,  999.0,  999.0
2012/03/23 23:20,  999.0,    0.6,   -1.7,   -4.4,   -6.3,   -8.2,   -9.4,   -8.4,   -8.6,  -10.1,  -12.2,  -13.6,  -15.3,  -14.7,  -14.1,  -10.4,  999.0,  999.0,  999.0,  -12.2,   -2.1,  999.0,  -13.0,  -12.5,  -10.0,  999.0,   -2.6,  999.0,  999.0,   14.1,  999.0,   13.0,   16.6,   18.4,   19.1,   20.2,   20.0,   20.0,   19.6,   20.8,   21.7,   23.6,   24.3,   29.9,   32.4,   33.7,   24.2,   32.8,   26.7,   35.2,   30.6,  999.0,  999.0,  999.0,  999.0,  999.0,  999.0,  999.0,  999.0,  999.0,  999.0,    7.5,   -0.1,   -0.2,   -0.3,   -0.3,   -0.4,   -0.0,   -0.2,  999.0,  999.0,    0.1,   -0.0,    0.1,  999.0,  999.0,  999.0,  999.0,  999.0,  999.0
2012/03/23 23:30,  999.0,  999.0,   -1.7,   -4.6,   -6.5,   -8.5,   -9.8,  999.0,   -9.3,  -11.0,  -12.2,  -13.1,  -14.1,  -14.6,  -11.1,  -10.2,   -5.5,   -3.7,  999.0,  999.0,  999.0,   -5.4,   -4.1,   -4.0,   -4.4,   -5.7,  999.0,  999.0,  999.0,  999.0,  999.0,  999.0,  999.0,  999.0,  999.0,   24.7,  999.0,   26.5,   25.3,   25.2,   26.6,   28.7,   30.6,   28.3,  999.0,  999.0,  999.0,  999.0,  999.0,  999.0,   13.5,   12.9,   14.4,   14.3,  999.0,  999.0,    6.7,  999.0,  999.0,  999.0,  999.0,   -0.2,    0.1,    0.1,   -0.1,    0.0,    0.2,   -0.0,   -0.0,  999.0,  999.0,  999.0,   -0.4,  999.0,  999.0,  999.0,  999.0,  999.0,  999.0,  999.0
2012/03/23 23:40,  999.0,  999.0,   -1.3,   -3.9,   -5.6,   -7.4,   -9.7,  -11.7,  -10.6,  -12.0,  -13.1,  -13.3,  -14.7,  -14.2,   -9.0,   -6.7,   -4.4,   -8.1,   -5.4,  999.0,  999.0,   -3.6,   -2.2,   -4.1,   -0.9,   -1.7,  999.0,  999.0,  999.0,  999.0,  999.0,  999.0,  999.0,  999.0,  999.0,   24.4,   25.1,   23.8,   22.7,   23.4,   25.9,   27.7,  999.0,  999.0,  999.0,  999.0,  999.0,  999.0,  999.0,   14.8,  999.0,   14.2,   14.2,  999.0,  999.0,    9.8,  999.0,  999.0,    0.0,   -0.1,   -0.3,   -0.1,    0.2,    0.1,   -0.0,   -0.4,   -0.0,  999.0,   -0.0,  999.0,  999.0,    0.6,    0.0,  999.0,  999.0,  999.0,  999.0,  999.0,  999.0,  999.0
2012/03/23 23:50,  999.0,  999.0,  999.0,   -5.3,   -5.5,   -7.3,  -10.0,  -11.7,  -10.9,  -12.1,  -13.0,  -12.5,  -12.9,  -11.3,   -9.1,  999.0,    0.2,   -4.9,    1.3,   -6.5,  999.0,   -2.1,   -1.0,    2.8,    3.9,    2.2,    5.2,    6.8,  999.0,  999.0,  999.0,  999.0,  999.0,  999.0,   23.6,   25.6,   22.5,   24.2,   24.6,   23.3,   26.4,   30.3,  999.0,  999.0,  999.0,  999.0,  999.0,  999.0,  999.0,  999.0,  999.0,  999.0,   13.6,   13.2,   11.5,  999.0,  999.0,  999.0,    0.3,    0.2,    0.2,   -0.3,    0.1,    0.2,    0.0,   -0.1,    0.1,   -0.1,  999.0,  999.0,  999.0,  999.0,   -0.1,    0.2,  999.0,  999.0,  999.0,  999.0,  999.0,  999.0
